Time,TemperatureF,DewpointF,PressureIn,WindDirection,WindDirectionDegrees,WindSpeedMPH,WindSpeedGustMPH,Humidity,HourlyPrecipIn,Conditions,Clouds,dailyrainin,SoftwareType,DateUTC
2013-01-03 00:00:00,3.4,-4.8,30.13,NW,308,4.0,14.0,68,0.00,,---,0.00,VWS V14.01,2013-01-03 05:00:00,
2013-01-03 00:01:00,3.4,-4.8,30.13,SW,231,4.0,4.0,68,0.00,,---,0.00,VWS V14.01,2013-01-03 05:01:00,
2013-01-03 00:03:00,3.3,-5.2,30.13,NNW,347,0.0,8.0,67,0.00,,---,0.00,VWS V14.01,2013-01-03 05:03:00,
2013-01-03 00:06:00,3.3,-4.9,30.12,West,265,4.0,11.0,68,0.00,,---,0.00,VWS V14.01,2013-01-03 05:06:00,
2013-01-03 00:09:00,3.2,-5.0,30.12,SSW,205,4.0,13.0,68,0.00,,---,0.00,VWS V14.01,2013-01-03 05:09:00,
2013-01-03 00:11:00,3.3,-4.3,30.11,NW,304,12.0,13.0,70,0.00,,---,0.00,VWS V14.01,2013-01-03 05:11:00,
2013-01-03 00:12:00,3.3,-4.6,30.11,NW,316,7.0,13.0,69,0.00,,---,0.00,VWS V14.01,2013-01-03 05:12:00,
2013-01-03 00:14:00,3.2,-5.0,30.11,WSW,249,4.0,13.0,68,0.00,,---,0.00,VWS V14.01,2013-01-03 05:14:00,
2013-01-03 00:16:00,3.2,-4.7,30.11,WNW,290,5.0,13.0,69,0.00,,---,0.00,VWS V14.01,2013-01-03 05:16:00,
2013-01-03 00:17:00,3.3,-4.6,30.11,WNW,299,11.0,15.0,69,0.00,,---,0.00,VWS V14.01,2013-01-03 05:17:00,
2013-01-03 00:18:00,3.3,-4.6,30.11,WNW,298,9.0,15.0,69,0.00,,---,0.00,VWS V14.01,2013-01-03 05:18:00,
2013-01-03 00:20:00,3.3,-4.6,30.11,West,277,5.0,15.0,69,0.00,,---,0.00,VWS V14.01,2013-01-03 05:20:00,
2013-01-03 00:22:00,3.3,-4.6,30.12,NNW,336,3.0,15.0,69,0.00,,---,0.00,VWS V14.01,2013-01-03 05:22:00,
2013-01-03 00:23:00,3.3,-4.6,30.12,NW,308,1.0,15.0,69,0.00,,---,0.00,VWS V14.01,2013-01-03 05:23:00,
2013-01-03 00:26:00,3.3,-4.9,30.12,ESE,122,5.0,15.0,68,0.00,,---,0.00,VWS V14.01,2013-01-03 05:26:00,
2013-01-03 00:27:00,3.4,-4.8,30.12,North,350,3.0,15.0,68,0.00,,---,0.00,VWS V14.01,2013-01-03 05:27:00,
2013-01-03 00:28:00,3.4,-4.5,30.12,West,273,5.0,15.0,69,0.00,,---,0.00,VWS V14.01,2013-01-03 05:28:00,
2013-01-03 00:29:00,3.4,-4.5,30.12,West,278,3.0,15.0,69,0.00,,---,0.00,VWS V14.01,2013-01-03 05:29:00,
2013-01-03 00:31:00,3.5,-4.4,30.12,NW,311,9.0,9.0,69,0.00,,---,0.00,VWS V14.01,2013-01-03 05:31:00,
2013-01-03 00:33:00,3.5,-4.7,30.12,NW,319,5.0,11.0,68,0.00,,---,0.00,VWS V14.01,2013-01-03 05:33:00,
2013-01-03 00:34:00,3.5,-4.4,30.12,WNW,291,7.0,11.0,69,0.00,,---,0.00,VWS V14.01,2013-01-03 05:34:00,
2013-01-03 00:35:00,3.5,-4.4,30.12,West,276,4.0,11.0,69,0.00,,---,0.00,VWS V14.01,2013-01-03 05:35:00,
2013-01-03 00:36:00,3.5,-4.4,30.12,WSW,240,4.0,11.0,69,0.00,,---,0.00,VWS V14.01,2013-01-03 05:36:00,
2013-01-03 00:38:00,3.5,-4.4,30.12,NW,311,3.0,11.0,69,0.00,,---,0.00,VWS V14.01,2013-01-03 05:38:00,
2013-01-03 00:40:00,3.5,-4.4,30.12,NNW,336,4.0,11.0,69,0.00,,---,0.00,VWS V14.01,2013-01-03 05:40:00,
2013-01-03 00:41:00,3.6,-4.0,30.12,WNW,295,9.0,12.0,70,0.00,,---,0.00,VWS V14.01,2013-01-03 05:41:00,
2013-01-03 00:43:00,3.7,-3.9,30.11,West,281,1.0,12.0,70,0.00,,---,0.00,VWS V14.01,2013-01-03 05:43:00,
2013-01-03 00:45:00,3.7,-3.6,30.11,NNW,330,2.0,12.0,71,0.00,,---,0.00,VWS V14.01,2013-01-03 05:45:00,
2013-01-03 00:47:00,3.8,-3.2,30.12,NE,50,1.0,12.0,72,0.00,,---,0.00,VWS V14.01,2013-01-03 05:47:00,
2013-01-03 00:48:00,3.9,-3.1,30.12,WNW,294,1.0,12.0,72,0.00,,---,0.00,VWS V14.01,2013-01-03 05:48:00,
2013-01-03 00:50:00,3.9,-3.1,30.12,NNW,341,5.0,12.0,72,0.00,,---,0.00,VWS V14.01,2013-01-03 05:50:00,
2013-01-03 00:51:00,3.9,-3.4,30.12,NE,51,1.0,12.0,71,0.00,,---,0.00,VWS V14.01,2013-01-03 05:51:00,
2013-01-03 00:54:00,3.9,-3.1,30.13,WSW,258,2.0,12.0,72,0.00,,---,0.00,VWS V14.01,2013-01-03 05:54:00,
2013-01-03 00:55:00,4.0,-2.7,30.13,WSW,243,1.0,12.0,73,0.00,,---,0.00,VWS V14.01,2013-01-03 05:55:00,
2013-01-03 00:57:00,4.0,-2.7,30.13,SW,221,2.0,12.0,73,0.00,,---,0.00,VWS V14.01,2013-01-03 05:57:00,
2013-01-03 00:59:00,4.0,-2.4,30.13,WNW,288,3.0,12.0,74,0.00,,---,0.00,VWS V14.01,2013-01-03 05:59:00,
2013-01-03 01:00:00,4.0,-2.4,30.13,WNW,284,10.0,12.0,74,0.00,,---,0.00,VWS V14.01,2013-01-03 06:00:00,
2013-01-03 01:01:00,4.0,-2.4,30.13,WNW,294,6.0,12.0,74,0.00,,---,0.00,VWS V14.01,2013-01-03 06:01:00,
2013-01-03 01:02:00,4.0,-2.4,30.13,WSW,252,5.0,12.0,74,0.00,,---,0.00,VWS V14.01,2013-01-03 06:02:00,
2013-01-03 01:04:00,4.1,-2.0,30.13,SW,233,5.0,12.0,75,0.00,,---,0.00,VWS V14.01,2013-01-03 06:04:00,
2013-01-03 01:05:00,4.1,-2.0,30.13,WNW,283,3.0,12.0,75,0.00,,---,0.00,VWS V14.01,2013-01-03 06:05:00,
2013-01-03 01:06:00,4.0,-2.7,30.12,SW,224,3.0,12.0,73,0.00,,---,0.00,VWS V14.01,2013-01-03 06:06:00,
2013-01-03 01:07:00,3.9,-2.8,30.13,West,276,6.0,12.0,73,0.00,,---,0.00,VWS V14.01,2013-01-03 06:07:00,
2013-01-03 01:09:00,3.8,-3.2,30.12,NW,309,3.0,12.0,72,0.00,,---,0.00,VWS V14.01,2013-01-03 06:09:00,
2013-01-03 01:11:00,3.8,-2.9,30.13,South,187,2.0,12.0,73,0.00,,---,0.00,VWS V14.01,2013-01-03 06:11:00,
2013-01-03 01:12:00,3.8,-2.6,30.13,NW,320,7.0,12.0,74,0.00,,---,0.00,VWS V14.01,2013-01-03 06:12:00,
2013-01-03 01:13:00,3.8,-2.6,30.13,West,270,9.0,12.0,74,0.00,,---,0.00,VWS V14.01,2013-01-03 06:13:00,
2013-01-03 01:15:00,3.8,-2.6,30.13,WNW,285,1.0,12.0,74,0.00,,---,0.00,VWS V14.01,2013-01-03 06:15:00,
2013-01-03 01:17:00,3.8,-2.6,30.13,NW,307,2.0,12.0,74,0.00,,---,0.00,VWS V14.01,2013-01-03 06:17:00,
2013-01-03 01:18:00,3.9,-2.2,30.13,West,264,2.0,12.0,75,0.00,,---,0.00,VWS V14.01,2013-01-03 06:18:00,
2013-01-03 01:19:00,3.9,-2.5,30.13,NW,315,2.0,12.0,74,0.00,,---,0.00,VWS V14.01,2013-01-03 06:19:00,
2013-01-03 01:20:00,3.8,-2.9,30.14,NW,314,3.0,12.0,73,0.00,,---,0.00,VWS V14.01,2013-01-03 06:20:00,
2013-01-03 01:23:00,3.9,-2.8,30.13,WNW,293,2.0,12.0,73,0.00,,---,0.00,VWS V14.01,2013-01-03 06:23:00,
2013-01-03 01:24:00,3.8,-2.9,30.13,West,262,3.0,12.0,73,0.00,,---,0.00,VWS V14.01,2013-01-03 06:24:00,
2013-01-03 01:26:00,3.8,-3.2,30.13,West,276,5.0,12.0,72,0.00,,---,0.00,VWS V14.01,2013-01-03 06:26:00,
2013-01-03 01:28:00,3.8,-3.5,30.13,WNW,297,4.0,15.0,71,0.00,,---,0.00,VWS V14.01,2013-01-03 06:28:00,
2013-01-03 01:29:00,3.8,-3.5,30.13,North,9,3.0,15.0,71,0.00,,---,0.00,VWS V14.01,2013-01-03 06:29:00,
2013-01-03 01:30:00,3.8,-3.5,30.13,NNE,26,3.0,6.0,71,0.00,,---,0.00,VWS V14.01,2013-01-03 06:30:00,
2013-01-03 01:31:00,3.8,-3.2,30.13,WNW,288,1.0,6.0,72,0.00,,---,0.00,VWS V14.01,2013-01-03 06:31:00,
2013-01-03 01:33:00,3.8,-3.2,30.13,West,266,6.0,11.0,72,0.00,,---,0.00,VWS V14.01,2013-01-03 06:33:00,
2013-01-03 01:35:00,3.8,-3.5,30.13,NW,318,6.0,11.0,71,0.00,,---,0.00,VWS V14.01,2013-01-03 06:35:00,
2013-01-03 01:36:00,3.8,-3.5,30.14,WNW,294,5.0,11.0,71,0.00,,---,0.00,VWS V14.01,2013-01-03 06:36:00,
2013-01-03 01:37:00,3.9,-3.1,30.13,WNW,291,6.0,12.0,72,0.00,,---,0.00,VWS V14.01,2013-01-03 06:37:00,
2013-01-03 01:39:00,3.9,-3.1,30.14,West,266,7.0,12.0,72,0.00,,---,0.00,VWS V14.01,2013-01-03 06:39:00,
2013-01-03 01:41:00,3.9,-3.1,30.14,WNW,298,6.0,12.0,72,0.00,,---,0.00,VWS V14.01,2013-01-03 06:41:00,
2013-01-03 01:42:00,3.9,-3.4,30.14,WNW,303,2.0,12.0,71,0.00,,---,0.00,VWS V14.01,2013-01-03 06:42:00,
2013-01-03 01:44:00,3.9,-3.4,30.14,West,269,0.0,12.0,71,0.00,,---,0.00,VWS V14.01,2013-01-03 06:44:00,
2013-01-03 01:47:00,3.9,-3.1,30.14,WNW,288,1.0,12.0,72,0.00,,---,0.00,VWS V14.01,2013-01-03 06:47:00,
2013-01-03 01:48:00,4.0,-3.0,30.14,NE,53,2.0,12.0,72,0.00,,---,0.00,VWS V14.01,2013-01-03 06:48:00,
2013-01-03 01:52:00,4.0,-2.7,30.14,WNW,297,4.0,12.0,73,0.00,,---,0.00,VWS V14.01,2013-01-03 06:52:00,
2013-01-03 01:53:00,4.0,-2.7,30.14,WNW,296,2.0,12.0,73,0.00,,---,0.00,VWS V14.01,2013-01-03 06:53:00,
2013-01-03 01:58:00,3.9,-3.1,30.14,NNW,347,7.0,12.0,72,0.00,,---,0.00,VWS V14.01,2013-01-03 06:58:00,
2013-01-03 01:59:00,3.9,-3.1,30.14,West,274,1.0,12.0,72,0.00,,---,0.00,VWS V14.01,2013-01-03 06:59:00,
2013-01-03 02:03:00,3.9,-3.4,30.14,NE,43,1.0,10.0,71,0.00,,---,0.00,VWS V14.01,2013-01-03 07:03:00,
2013-01-03 02:04:00,3.9,-3.4,30.14,NW,309,0.0,10.0,71,0.00,,---,0.00,VWS V14.01,2013-01-03 07:04:00,
2013-01-03 02:05:00,3.9,-3.4,30.14,WNW,288,8.0,10.0,71,0.00,,---,0.00,VWS V14.01,2013-01-03 07:05:00,
2013-01-03 02:09:00,3.9,-3.4,30.14,West,260,1.0,10.0,71,0.00,,---,0.00,VWS V14.01,2013-01-03 07:09:00,
2013-01-03 02:10:00,3.9,-3.4,30.14,West,259,2.0,10.0,71,0.00,,---,0.00,VWS V14.01,2013-01-03 07:10:00,
2013-01-03 02:14:00,3.9,-3.4,30.14,WNW,283,6.0,10.0,71,0.00,,---,0.00,VWS V14.01,2013-01-03 07:14:00,
2013-01-03 02:15:00,3.9,-3.4,30.14,SW,228,3.0,10.0,71,0.00,,---,0.00,VWS V14.01,2013-01-03 07:15:00,
2013-01-03 02:19:00,4.0,-2.7,30.14,WNW,303,2.0,10.0,73,0.00,,---,0.00,VWS V14.01,2013-01-03 07:19:00,
2013-01-03 02:20:00,4.0,-2.7,30.15,West,264,7.0,10.0,73,0.00,,---,0.00,VWS V14.01,2013-01-03 07:20:00,
2013-01-03 02:21:00,4.1,-2.6,30.14,SW,235,5.0,10.0,73,0.00,,---,0.00,VWS V14.01,2013-01-03 07:21:00,
2013-01-03 02:25:00,4.1,-2.9,30.14,NW,309,6.0,10.0,72,0.00,,---,0.00,VWS V14.01,2013-01-03 07:25:00,
2013-01-03 02:26:00,4.0,-3.0,30.14,WNW,288,3.0,10.0,72,0.00,,---,0.00,VWS V14.01,2013-01-03 07:26:00,
2013-01-03 02:30:00,4.1,-2.6,30.14,NNE,18,2.0,2.0,73,0.00,,---,0.00,VWS V14.01,2013-01-03 07:30:00,
2013-01-03 02:31:00,4.1,-2.6,30.14,West,277,3.0,3.0,73,0.00,,---,0.00,VWS V14.01,2013-01-03 07:31:00,
2013-01-03 02:32:00,4.1,-2.6,30.14,West,277,2.0,10.0,73,0.00,,---,0.00,VWS V14.01,2013-01-03 07:32:00,
2013-01-03 02:35:00,4.0,-2.7,30.15,West,280,1.0,10.0,73,0.00,,---,0.00,VWS V14.01,2013-01-03 07:35:00,
2013-01-03 02:37:00,4.0,-2.7,30.15,West,261,3.0,10.0,73,0.00,,---,0.00,VWS V14.01,2013-01-03 07:37:00,
2013-01-03 02:38:00,4.0,-2.7,30.15,SSW,195,3.0,10.0,73,0.00,,---,0.00,VWS V14.01,2013-01-03 07:38:00,
2013-01-03 02:42:00,4.0,-2.7,30.15,SW,228,6.0,12.0,73,0.00,,---,0.00,VWS V14.01,2013-01-03 07:42:00,
2013-01-03 02:43:00,4.0,-2.7,30.15,West,276,1.0,12.0,73,0.00,,---,0.00,VWS V14.01,2013-01-03 07:43:00,
2013-01-03 02:44:00,4.0,-2.7,30.15,West,271,4.0,12.0,73,0.00,,---,0.00,VWS V14.01,2013-01-03 07:44:00,
2013-01-03 02:47:00,3.9,-2.8,30.15,NW,309,6.0,12.0,73,0.00,,---,0.00,VWS V14.01,2013-01-03 07:47:00,
2013-01-03 02:48:00,3.9,-2.8,30.15,West,267,7.0,12.0,73,0.00,,---,0.00,VWS V14.01,2013-01-03 07:48:00,
2013-01-03 02:49:00,3.9,-2.8,30.14,NW,308,0.0,12.0,73,0.00,,---,0.00,VWS V14.01,2013-01-03 07:49:00,
2013-01-03 02:52:00,3.9,-2.8,30.14,WNW,297,2.0,12.0,73,0.00,,---,0.00,VWS V14.01,2013-01-03 07:52:00,
2013-01-03 02:53:00,3.9,-2.8,30.14,West,274,4.0,12.0,73,0.00,,---,0.00,VWS V14.01,2013-01-03 07:53:00,
2013-01-03 02:54:00,3.9,-2.8,30.14,WNW,288,6.0,12.0,73,0.00,,---,0.00,VWS V14.01,2013-01-03 07:54:00,
2013-01-03 02:58:00,3.9,-2.8,30.14,NW,325,2.0,12.0,73,0.00,,---,0.00,VWS V14.01,2013-01-03 07:58:00,
2013-01-03 02:59:00,4.0,-2.7,30.14,NW,323,2.0,12.0,73,0.00,,---,0.00,VWS V14.01,2013-01-03 07:59:00,
2013-01-03 03:03:00,4.0,-2.7,30.14,NW,316,2.0,8.0,73,0.00,,---,0.00,VWS V14.01,2013-01-03 08:03:00,
2013-01-03 03:04:00,3.9,-2.8,30.14,WNW,285,3.0,8.0,73,0.00,,---,0.00,VWS V14.01,2013-01-03 08:04:00,
2013-01-03 03:05:00,4.0,-2.7,30.14,NNW,328,1.0,8.0,73,0.00,,---,0.00,VWS V14.01,2013-01-03 08:05:00,
2013-01-03 03:09:00,4.0,-2.4,30.14,West,279,5.0,9.0,74,0.00,,---,0.00,VWS V14.01,2013-01-03 08:09:00,
2013-01-03 03:10:00,4.0,-2.4,30.14,WNW,284,0.0,9.0,74,0.00,,---,0.00,VWS V14.01,2013-01-03 08:10:00,
2013-01-03 03:14:00,4.0,-2.2,30.14,SW,236,0.0,9.0,75,0.00,,---,0.00,VWS V14.01,2013-01-03 08:14:00,
2013-01-03 03:16:00,4.1,-2.3,30.14,West,276,4.0,9.0,74,0.00,,---,0.00,VWS V14.01,2013-01-03 08:16:00,
2013-01-03 03:17:00,4.1,-2.3,30.14,WNW,302,3.0,9.0,74,0.00,,---,0.00,VWS V14.01,2013-01-03 08:17:00,
2013-01-03 03:19:00,4.1,-2.3,30.13,NW,308,3.0,9.0,74,0.00,,---,0.00,VWS V14.01,2013-01-03 08:19:00,
2013-01-03 03:20:00,4.0,-2.4,30.13,NW,306,2.0,9.0,74,0.00,,---,0.00,VWS V14.01,2013-01-03 08:20:00,
2013-01-03 03:21:00,4.1,-2.3,30.13,North,356,1.0,9.0,74,0.00,,---,0.00,VWS V14.01,2013-01-03 08:21:00,
2013-01-03 03:22:00,4.0,-2.4,30.13,NW,315,0.0,9.0,74,0.00,,---,0.00,VWS V14.01,2013-01-03 08:22:00,
2013-01-03 03:25:00,4.0,-2.4,30.14,NW,311,2.0,9.0,74,0.00,,---,0.00,VWS V14.01,2013-01-03 08:25:00,
2013-01-03 03:26:00,4.0,-2.4,30.13,WNW,301,2.0,9.0,74,0.00,,---,0.00,VWS V14.01,2013-01-03 08:26:00,
2013-01-03 03:28:00,3.7,-3.0,30.13,NNE,30,2.0,9.0,73,0.00,,---,0.00,VWS V14.01,2013-01-03 08:28:00,
2013-01-03 03:30:00,3.7,-3.0,30.13,WNW,284,4.0,4.0,73,0.00,,---,0.00,VWS V14.01,2013-01-03 08:30:00,
2013-01-03 03:31:00,3.7,-3.0,30.13,WNW,284,4.0,4.0,73,0.00,,---,0.00,VWS V14.01,2013-01-03 08:31:00,
2013-01-03 03:32:00,3.7,-3.0,30.13,WNW,284,4.0,4.0,73,0.00,,---,0.00,VWS V14.01,2013-01-03 08:32:00,
2013-01-03 03:33:00,3.7,-3.0,30.13,WNW,284,4.0,4.0,73,0.00,,---,0.00,VWS V14.01,2013-01-03 08:33:00,
2013-01-03 03:36:00,3.7,-3.0,30.13,WNW,284,4.0,4.0,73,0.00,,---,0.00,VWS V14.01,2013-01-03 08:36:00,
2013-01-03 03:37:00,3.7,-3.0,30.13,WNW,284,4.0,4.0,73,0.00,,---,0.00,VWS V14.01,2013-01-03 08:37:00,
2013-01-03 03:38:00,3.7,-3.0,30.13,WNW,284,4.0,4.0,73,0.00,,---,0.00,VWS V14.01,2013-01-03 08:38:00,
2013-01-03 03:41:00,3.7,-3.0,30.12,WNW,284,4.0,4.0,73,0.00,,---,0.00,VWS V14.01,2013-01-03 08:41:00,
2013-01-03 03:42:00,3.7,-3.0,30.12,WNW,284,4.0,4.0,73,0.00,,---,0.00,VWS V14.01,2013-01-03 08:42:00,
2013-01-03 03:43:00,3.7,-3.0,30.12,WNW,284,4.0,4.0,73,0.00,,---,0.00,VWS V14.01,2013-01-03 08:43:00,
2013-01-03 03:44:00,3.7,-3.0,30.13,WNW,284,4.0,4.0,73,0.00,,---,0.00,VWS V14.01,2013-01-03 08:44:00,
2013-01-03 03:47:00,3.7,-3.0,30.13,WNW,284,4.0,4.0,73,0.00,,---,0.00,VWS V14.01,2013-01-03 08:47:00,
2013-01-03 03:48:00,3.7,-3.0,30.13,WNW,284,4.0,4.0,73,0.00,,---,0.00,VWS V14.01,2013-01-03 08:48:00,
2013-01-03 03:49:00,3.7,-3.0,30.13,WNW,284,4.0,4.0,73,0.00,,---,0.00,VWS V14.01,2013-01-03 08:49:00,
2013-01-03 03:52:00,3.7,-3.0,30.13,WNW,284,4.0,4.0,73,0.00,,---,0.00,VWS V14.01,2013-01-03 08:52:00,
2013-01-03 03:53:00,3.7,-3.0,30.13,WNW,284,4.0,4.0,73,0.00,,---,0.00,VWS V14.01,2013-01-03 08:53:00,
2013-01-03 03:55:00,3.1,-2.7,30.13,NW,304,5.0,7.0,76,0.00,,---,0.00,VWS V14.01,2013-01-03 08:55:00,
2013-01-03 03:58:00,3.3,-2.5,30.13,WNW,302,5.0,9.0,76,0.00,,---,0.00,VWS V14.01,2013-01-03 08:58:00,
2013-01-03 04:00:00,3.3,-2.3,30.13,WNW,302,6.0,6.0,77,0.00,,---,0.00,VWS V14.01,2013-01-03 09:00:00,
2013-01-03 04:01:00,3.4,-2.2,30.13,WNW,301,2.0,6.0,77,0.00,,---,0.00,VWS V14.01,2013-01-03 09:01:00,
2013-01-03 04:03:00,3.5,-2.1,30.13,WNW,298,8.0,8.0,77,0.00,,---,0.00,VWS V14.01,2013-01-03 09:03:00,
2013-01-03 04:06:00,3.6,-2.0,30.13,WNW,295,7.0,11.0,77,0.00,,---,0.00,VWS V14.01,2013-01-03 09:06:00,
2013-01-03 04:08:00,3.7,-1.9,30.13,NW,309,7.0,11.0,77,0.00,,---,0.00,VWS V14.01,2013-01-03 09:08:00,
2013-01-03 04:11:00,3.8,-1.8,30.13,NW,309,3.0,11.0,77,0.00,,---,0.00,VWS V14.01,2013-01-03 09:11:00,
2013-01-03 04:12:00,3.8,-1.8,30.12,NW,309,3.0,11.0,77,0.00,,---,0.00,VWS V14.01,2013-01-03 09:12:00,
2013-01-03 04:13:00,3.8,-1.8,30.12,NW,309,4.0,11.0,77,0.00,,---,0.00,VWS V14.01,2013-01-03 09:13:00,
2013-01-03 04:15:00,3.7,-1.9,30.12,NW,309,1.0,11.0,77,0.00,,---,0.00,VWS V14.01,2013-01-03 09:15:00,
2013-01-03 04:17:00,3.8,-1.5,30.12,NW,309,3.0,11.0,78,0.00,,---,0.00,VWS V14.01,2013-01-03 09:17:00,
2013-01-03 04:19:00,3.7,-1.9,30.12,NW,310,7.0,11.0,77,0.00,,---,0.00,VWS V14.01,2013-01-03 09:19:00,
2013-01-03 04:20:00,3.7,-1.9,30.12,NW,307,9.0,11.0,77,0.00,,---,0.00,VWS V14.01,2013-01-03 09:20:00,
2013-01-03 04:22:00,3.7,-2.2,30.12,NW,304,7.0,11.0,76,0.00,,---,0.00,VWS V14.01,2013-01-03 09:22:00,
2013-01-03 04:25:00,3.7,-2.2,30.12,WNW,300,7.0,11.0,76,0.00,,---,0.00,VWS V14.01,2013-01-03 09:25:00,
2013-01-03 04:27:00,3.7,-2.2,30.12,WNW,300,7.0,11.0,76,0.00,,---,0.00,VWS V14.01,2013-01-03 09:27:00,
2013-01-03 04:28:00,3.7,-2.2,30.12,WNW,300,7.0,11.0,76,0.00,,---,0.00,VWS V14.01,2013-01-03 09:28:00,
2013-01-03 04:31:00,3.7,-2.2,30.12,WNW,300,7.0,7.0,76,0.00,,---,0.00,VWS V14.01,2013-01-03 09:31:00,
2013-01-03 04:33:00,3.7,-2.2,30.12,WNW,300,7.0,7.0,76,0.00,,---,0.00,VWS V14.01,2013-01-03 09:33:00,
2013-01-03 04:38:00,3.7,-2.2,30.11,WNW,300,7.0,7.0,76,0.00,,---,0.00,VWS V14.01,2013-01-03 09:38:00,
2013-01-03 04:39:00,3.7,-2.2,30.11,WNW,300,7.0,7.0,76,0.00,,---,0.00,VWS V14.01,2013-01-03 09:39:00,
2013-01-03 04:43:00,3.7,-2.2,30.12,WNW,300,7.0,7.0,76,0.00,,---,0.00,VWS V14.01,2013-01-03 09:43:00,
2013-01-03 04:44:00,3.7,-2.2,30.12,WNW,300,7.0,7.0,76,0.00,,---,0.00,VWS V14.01,2013-01-03 09:44:00,
2013-01-03 04:48:00,3.7,-2.2,30.12,WNW,300,7.0,7.0,76,0.00,,---,0.00,VWS V14.01,2013-01-03 09:48:00,
2013-01-03 04:49:00,3.7,-2.2,30.12,WNW,300,7.0,7.0,76,0.00,,---,0.00,VWS V14.01,2013-01-03 09:49:00,
2013-01-03 04:50:00,3.7,-2.2,30.12,WNW,300,7.0,7.0,76,0.00,,---,0.00,VWS V14.01,2013-01-03 09:50:00,
2013-01-03 04:54:00,3.7,-2.2,30.12,WNW,300,7.0,7.0,76,0.00,,---,0.00,VWS V14.01,2013-01-03 09:54:00,
2013-01-03 04:55:00,3.7,-2.2,30.12,WNW,300,7.0,7.0,76,0.00,,---,0.00,VWS V14.01,2013-01-03 09:55:00,
2013-01-03 04:59:00,3.7,-2.2,30.12,WNW,300,7.0,7.0,76,0.00,,---,0.00,VWS V14.01,2013-01-03 09:59:00,
2013-01-03 05:00:00,3.7,-2.2,30.12,WNW,300,7.0,7.0,76,0.00,,---,0.00,VWS V14.01,2013-01-03 10:00:00,
2013-01-03 05:05:00,3.7,-2.2,30.12,WNW,300,7.0,7.0,76,0.00,,---,0.00,VWS V14.01,2013-01-03 10:05:00,
2013-01-03 05:06:00,3.7,-2.2,30.12,WNW,300,7.0,7.0,76,0.00,,---,0.00,VWS V14.01,2013-01-03 10:06:00,
2013-01-03 05:10:00,3.7,-2.2,30.12,WNW,300,7.0,7.0,76,0.00,,---,0.00,VWS V14.01,2013-01-03 10:10:00,
2013-01-03 05:11:00,3.7,-2.2,30.12,WNW,300,7.0,7.0,76,0.00,,---,0.00,VWS V14.01,2013-01-03 10:11:00,
2013-01-03 05:12:00,3.7,-2.2,30.12,WNW,300,7.0,7.0,76,0.00,,---,0.00,VWS V14.01,2013-01-03 10:12:00,
2013-01-03 05:15:00,3.7,-2.2,30.12,WNW,300,7.0,7.0,76,0.00,,---,0.00,VWS V14.01,2013-01-03 10:15:00,
2013-01-03 05:18:00,3.7,-2.2,30.12,WNW,300,7.0,7.0,76,0.00,,---,0.00,VWS V14.01,2013-01-03 10:18:00,
2013-01-03 05:20:00,3.7,-2.2,30.12,WNW,300,7.0,7.0,76,0.00,,---,0.00,VWS V14.01,2013-01-03 10:20:00,
2013-01-03 05:21:00,3.7,-2.2,30.12,WNW,300,7.0,7.0,76,0.00,,---,0.00,VWS V14.01,2013-01-03 10:21:00,
2013-01-03 05:23:00,3.7,-2.2,30.12,WNW,300,7.0,7.0,76,0.00,,---,0.00,VWS V14.01,2013-01-03 10:23:00,
2013-01-03 05:24:00,3.7,-2.2,30.12,WNW,300,7.0,7.0,76,0.00,,---,0.00,VWS V14.01,2013-01-03 10:24:00,
2013-01-03 05:26:00,3.7,-2.2,30.12,WNW,300,7.0,7.0,76,0.00,,---,0.00,VWS V14.01,2013-01-03 10:26:00,
2013-01-03 05:29:00,3.7,-2.2,30.12,WNW,300,7.0,7.0,76,0.00,,---,0.00,VWS V14.01,2013-01-03 10:29:00,
2013-01-03 05:31:00,3.7,-2.2,30.12,WNW,300,7.0,7.0,76,0.00,,---,0.00,VWS V14.01,2013-01-03 10:31:00,
2013-01-03 05:34:00,3.7,-2.2,30.12,WNW,300,7.0,7.0,76,0.00,,---,0.00,VWS V14.01,2013-01-03 10:34:00,
2013-01-03 05:35:00,3.7,-2.2,30.12,WNW,300,7.0,7.0,76,0.00,,---,0.00,VWS V14.01,2013-01-03 10:35:00,
2013-01-03 05:36:00,3.7,-2.2,30.12,WNW,300,7.0,7.0,76,0.00,,---,0.00,VWS V14.01,2013-01-03 10:36:00,
2013-01-03 05:40:00,3.7,-2.2,30.13,WNW,300,7.0,7.0,76,0.00,,---,0.00,VWS V14.01,2013-01-03 10:40:00,
2013-01-03 05:41:00,3.7,-2.2,30.12,WNW,300,7.0,7.0,76,0.00,,---,0.00,VWS V14.01,2013-01-03 10:41:00,
2013-01-03 05:45:00,3.7,-2.2,30.13,WNW,300,7.0,7.0,76,0.00,,---,0.00,VWS V14.01,2013-01-03 10:45:00,
2013-01-03 05:46:00,3.7,-2.2,30.13,WNW,300,7.0,7.0,76,0.00,,---,0.00,VWS V14.01,2013-01-03 10:46:00,
2013-01-03 05:47:00,3.7,-2.2,30.13,WNW,300,7.0,7.0,76,0.00,,---,0.00,VWS V14.01,2013-01-03 10:47:00,
2013-01-03 05:51:00,3.7,-2.2,30.12,WNW,300,7.0,7.0,76,0.00,,---,0.00,VWS V14.01,2013-01-03 10:51:00,
2013-01-03 05:52:00,3.7,-2.2,30.12,WNW,300,7.0,7.0,76,0.00,,---,0.00,VWS V14.01,2013-01-03 10:52:00,
2013-01-03 05:54:00,3.7,-2.2,30.12,WNW,300,7.0,7.0,76,0.00,,---,0.00,VWS V14.01,2013-01-03 10:54:00,
2013-01-03 05:56:00,3.7,-2.2,30.13,WNW,300,7.0,7.0,76,0.00,,---,0.00,VWS V14.01,2013-01-03 10:56:00,
2013-01-03 05:57:00,3.7,-2.2,30.13,WNW,300,7.0,7.0,76,0.00,,---,0.00,VWS V14.01,2013-01-03 10:57:00,
2013-01-03 06:00:00,3.7,-2.2,30.12,WNW,300,7.0,7.0,76,0.00,,---,0.00,VWS V14.01,2013-01-03 11:00:00,
2013-01-03 06:01:00,3.7,-2.2,30.12,WNW,300,7.0,7.0,76,0.00,,---,0.00,VWS V14.01,2013-01-03 11:01:00,
2013-01-03 06:02:00,3.7,-2.2,30.12,WNW,300,7.0,7.0,76,0.00,,---,0.00,VWS V14.01,2013-01-03 11:02:00,
2013-01-03 06:05:00,3.9,-2.5,30.12,NNE,24,1.0,7.0,74,0.00,,---,0.00,VWS V14.01,2013-01-03 11:05:00,
2013-01-03 06:06:00,3.8,-2.6,30.12,NNE,16,2.0,7.0,74,0.00,,---,0.00,VWS V14.01,2013-01-03 11:06:00,
2013-01-03 06:07:00,3.6,-2.5,30.12,NNW,347,2.0,7.0,75,0.00,,---,0.00,VWS V14.01,2013-01-03 11:07:00,
2013-01-03 06:08:00,3.5,-2.6,30.12,North,360,2.0,7.0,75,0.00,,---,0.00,VWS V14.01,2013-01-03 11:08:00,
2013-01-03 06:11:00,3.2,-2.6,30.12,North,356,1.0,7.0,76,0.00,,---,0.00,VWS V14.01,2013-01-03 11:11:00,
2013-01-03 06:12:00,3.1,-2.7,30.12,North,357,1.0,7.0,76,0.00,,---,0.00,VWS V14.01,2013-01-03 11:12:00,
2013-01-03 06:13:00,3.0,-2.8,30.13,North,357,1.0,7.0,76,0.00,,---,0.00,VWS V14.01,2013-01-03 11:13:00,
2013-01-03 06:16:00,2.9,-2.9,30.13,NW,320,2.0,7.0,76,0.00,,---,0.00,VWS V14.01,2013-01-03 11:16:00,
2013-01-03 06:17:00,2.9,-2.9,30.13,North,352,1.0,7.0,76,0.00,,---,0.00,VWS V14.01,2013-01-03 11:17:00,
2013-01-03 06:18:00,3.0,-2.8,30.13,North,352,1.0,7.0,76,0.00,,---,0.00,VWS V14.01,2013-01-03 11:18:00,
2013-01-03 06:19:00,3.0,-2.8,30.13,North,352,1.0,7.0,76,0.00,,---,0.00,VWS V14.01,2013-01-03 11:19:00,
2013-01-03 06:21:00,3.0,-2.8,30.13,North,352,1.0,7.0,76,0.00,,---,0.00,VWS V14.01,2013-01-03 11:21:00,
2013-01-03 06:23:00,3.1,-2.7,30.13,North,357,1.0,7.0,76,0.00,,---,0.00,VWS V14.01,2013-01-03 11:23:00,
2013-01-03 06:25:00,3.2,-2.9,30.13,NNW,332,1.0,7.0,75,0.00,,---,0.00,VWS V14.01,2013-01-03 11:25:00,
2013-01-03 06:26:00,3.2,-2.9,30.13,WNW,297,3.0,7.0,75,0.00,,---,0.00,VWS V14.01,2013-01-03 11:26:00,
2013-01-03 06:28:00,3.5,-2.6,30.13,WSW,248,2.0,7.0,75,0.00,,---,0.00,VWS V14.01,2013-01-03 11:28:00,
2013-01-03 06:30:00,3.7,-1.9,30.13,WNW,294,3.0,3.0,77,0.00,,---,0.00,VWS V14.01,2013-01-03 11:30:00,
2013-01-03 06:31:00,3.8,-1.8,30.13,NW,326,1.0,3.0,77,0.00,,---,0.00,VWS V14.01,2013-01-03 11:31:00,
2013-01-03 06:33:00,4.0,-1.6,30.13,WNW,290,2.0,3.0,77,0.00,,---,0.00,VWS V14.01,2013-01-03 11:33:00,
2013-01-03 06:34:00,4.1,-1.5,30.13,West,271,1.0,3.0,77,0.00,,---,0.00,VWS V14.01,2013-01-03 11:34:00,
2013-01-03 06:36:00,4.1,-1.8,30.13,North,354,2.0,3.0,76,0.00,,---,0.00,VWS V14.01,2013-01-03 11:36:00,
2013-01-03 06:38:00,3.8,-2.3,30.13,NNE,26,1.0,3.0,75,0.00,,---,0.00,VWS V14.01,2013-01-03 11:38:00,
2013-01-03 06:39:00,3.7,-2.4,30.13,NNW,328,1.0,3.0,75,0.00,,---,0.00,VWS V14.01,2013-01-03 11:39:00,
2013-01-03 06:41:00,3.6,-2.3,30.13,WSW,252,5.0,5.0,76,0.00,,---,0.00,VWS V14.01,2013-01-03 11:41:00,
2013-01-03 06:42:00,3.6,-2.3,30.13,NW,326,1.0,5.0,76,0.00,,---,0.00,VWS V14.01,2013-01-03 11:42:00,
2013-01-03 06:43:00,3.6,-2.3,30.13,NNW,339,2.0,5.0,76,0.00,,---,0.00,VWS V14.01,2013-01-03 11:43:00,
2013-01-03 06:44:00,3.6,-2.3,30.13,NNE,16,0.0,5.0,76,0.00,,---,0.00,VWS V14.01,2013-01-03 11:44:00,
2013-01-03 06:47:00,3.5,-2.3,30.13,NNW,345,2.0,5.0,76,0.00,,---,0.00,VWS V14.01,2013-01-03 11:47:00,
2013-01-03 06:49:00,3.4,-2.2,30.13,NW,320,2.0,5.0,77,0.00,,---,0.00,VWS V14.01,2013-01-03 11:49:00,
2013-01-03 06:51:00,3.5,-1.8,30.13,North,353,3.0,5.0,78,0.00,,---,0.00,VWS V14.01,2013-01-03 11:51:00,
2013-01-03 06:53:00,3.7,-1.6,30.13,NW,311,2.0,5.0,78,0.00,,---,0.00,VWS V14.01,2013-01-03 11:53:00,
2013-01-03 06:54:00,3.7,-1.6,30.13,North,11,2.0,5.0,78,0.00,,---,0.00,VWS V14.01,2013-01-03 11:54:00,
2013-01-03 06:57:00,3.5,-2.3,30.14,NNW,333,2.0,5.0,76,0.00,,---,0.00,VWS V14.01,2013-01-03 11:57:00,
2013-01-03 06:58:00,3.3,-2.8,30.14,North,1,2.0,5.0,75,0.00,,---,0.00,VWS V14.01,2013-01-03 11:58:00,
2013-01-03 07:00:00,3.0,-3.1,30.14,NNE,15,2.0,5.0,75,0.00,,---,0.00,VWS V14.01,2013-01-03 12:00:00,
2013-01-03 07:01:00,2.8,-3.3,30.14,NNE,21,3.0,3.0,75,0.00,,---,0.00,VWS V14.01,2013-01-03 12:01:00,
2013-01-03 07:03:00,2.5,-3.3,30.14,NNE,21,2.0,3.0,76,0.00,,---,0.00,VWS V14.01,2013-01-03 12:03:00,
2013-01-03 07:05:00,2.5,-3.0,30.14,North,1,2.0,4.0,77,0.00,,---,0.00,VWS V14.01,2013-01-03 12:05:00,
2013-01-03 07:06:00,2.5,-3.0,30.14,North,8,3.0,4.0,77,0.00,,---,0.00,VWS V14.01,2013-01-03 12:06:00,
2013-01-03 07:08:00,2.5,-3.0,30.14,WNW,300,2.0,5.0,77,0.00,,---,0.00,VWS V14.01,2013-01-03 12:08:00,
2013-01-03 07:10:00,2.7,-2.6,30.14,NE,45,1.0,5.0,78,0.00,,---,0.00,VWS V14.01,2013-01-03 12:10:00,
2013-01-03 07:11:00,2.7,-2.9,30.14,NNE,16,2.0,5.0,77,0.00,,---,0.00,VWS V14.01,2013-01-03 12:11:00,
2013-01-03 07:13:00,2.4,-3.4,30.14,NNE,18,2.0,5.0,76,0.00,,---,0.00,VWS V14.01,2013-01-03 12:13:00,
2013-01-03 07:14:00,2.4,-3.4,30.14,NNW,345,3.0,5.0,76,0.00,,---,0.00,VWS V14.01,2013-01-03 12:14:00,
2013-01-03 07:16:00,1.8,-4.0,30.14,North,9,3.0,5.0,76,0.00,,---,0.00,VWS V14.01,2013-01-03 12:16:00,
2013-01-03 07:17:00,1.7,-4.1,30.14,NNE,20,2.0,5.0,76,0.00,,---,0.00,VWS V14.01,2013-01-03 12:17:00,
2013-01-03 07:18:00,1.5,-4.0,30.14,North,353,3.0,5.0,77,0.00,,---,0.00,VWS V14.01,2013-01-03 12:18:00,
2013-01-03 07:19:00,1.5,-3.8,30.14,North,356,2.0,5.0,78,0.00,,---,0.00,VWS V14.01,2013-01-03 12:19:00,
2013-01-03 07:22:00,1.6,-3.4,30.14,WNW,297,3.0,5.0,79,0.00,,---,0.00,VWS V14.01,2013-01-03 12:22:00,
2013-01-03 07:23:00,1.6,-3.4,30.14,WNW,293,2.0,5.0,79,0.00,,---,0.00,VWS V14.01,2013-01-03 12:23:00,
2013-01-03 07:24:00,2.2,-2.3,30.14,NNW,332,1.0,5.0,81,0.00,,---,0.00,VWS V14.01,2013-01-03 12:24:00,
2013-01-03 07:28:00,3.3,-1.5,30.15,NE,46,1.0,6.0,80,0.00,,---,0.00,VWS V14.01,2013-01-03 12:28:00,
2013-01-03 07:29:00,3.8,-1.2,30.14,WSW,257,7.0,9.0,79,0.00,,---,0.00,VWS V14.01,2013-01-03 12:29:00,
2013-01-03 07:30:00,4.0,-1.0,30.15,West,263,1.0,3.0,79,0.00,,---,0.00,VWS V14.01,2013-01-03 12:30:00,
2013-01-03 07:33:00,4.6,-1.0,30.15,North,357,2.0,4.0,77,0.00,,---,0.00,VWS V14.01,2013-01-03 12:33:00,
2013-01-03 07:34:00,4.6,-1.0,30.15,NNW,339,2.0,4.0,77,0.00,,---,0.00,VWS V14.01,2013-01-03 12:34:00,
2013-01-03 07:36:00,4.7,-1.2,30.15,NW,311,4.0,4.0,76,0.00,,---,0.00,VWS V14.01,2013-01-03 12:36:00,
2013-01-03 07:39:00,5.2,-1.0,30.15,West,263,3.0,8.0,75,0.00,,---,0.00,VWS V14.01,2013-01-03 12:39:00,
2013-01-03 07:41:00,5.7,-0.5,30.15,NNW,330,6.0,8.0,75,0.00,,---,0.00,VWS V14.01,2013-01-03 12:41:00,
2013-01-03 07:44:00,6.2,-0.3,30.15,NNE,15,1.0,8.0,74,0.00,,---,0.00,VWS V14.01,2013-01-03 12:44:00,
2013-01-03 07:45:00,6.4,-0.1,30.15,East,98,1.0,8.0,74,0.00,,---,0.00,VWS V14.01,2013-01-03 12:45:00,
2013-01-03 07:47:00,6.8,0.3,30.15,West,276,3.0,8.0,74,0.00,,---,0.00,VWS V14.01,2013-01-03 12:47:00,
2013-01-03 07:49:00,7.1,0.0,30.15,NW,315,5.0,8.0,72,0.00,,---,0.00,VWS V14.01,2013-01-03 12:49:00,
2013-01-03 07:50:00,7.2,-0.2,30.15,NNW,342,1.0,8.0,71,0.00,,---,0.00,VWS V14.01,2013-01-03 12:50:00,
2013-01-03 07:52:00,7.4,0.0,30.15,ENE,62,1.0,8.0,71,0.00,,---,0.00,VWS V14.01,2013-01-03 12:52:00,
2013-01-03 07:53:00,7.6,0.2,30.15,West,281,1.0,8.0,71,0.00,,---,0.00,VWS V14.01,2013-01-03 12:53:00,
2013-01-03 07:55:00,7.9,0.2,30.15,NW,315,1.0,8.0,70,0.00,,---,0.00,VWS V14.01,2013-01-03 12:55:00,
2013-01-03 07:57:00,8.3,0.9,30.15,NE,38,2.0,8.0,71,0.00,,---,0.00,VWS V14.01,2013-01-03 12:57:00,
2013-01-03 07:59:00,8.5,0.4,30.15,West,269,1.0,8.0,69,0.00,,---,0.00,VWS V14.01,2013-01-03 12:59:00,
2013-01-03 08:00:00,8.6,0.5,30.15,West,261,2.0,3.0,69,0.00,,---,0.00,VWS V14.01,2013-01-03 13:00:00,
2013-01-03 08:03:00,8.7,0.3,30.15,WNW,291,3.0,5.0,68,0.00,,---,0.00,VWS V14.01,2013-01-03 13:03:00,
2013-01-03 08:04:00,8.7,0.0,30.15,NNW,339,1.0,5.0,67,0.00,,---,0.00,VWS V14.01,2013-01-03 13:04:00,
2013-01-03 08:05:00,8.7,0.0,30.15,WNW,301,2.0,8.0,67,0.00,,---,0.00,VWS V14.01,2013-01-03 13:05:00,
2013-01-03 08:06:00,8.7,0.0,30.14,WNW,294,0.0,8.0,67,0.00,,---,0.00,VWS V14.01,2013-01-03 13:06:00,
2013-01-03 08:08:00,9.0,0.6,30.15,NNE,26,1.0,8.0,68,0.00,,---,0.00,VWS V14.01,2013-01-03 13:08:00,
2013-01-03 08:09:00,9.2,0.8,30.15,NW,309,2.0,8.0,68,0.00,,---,0.00,VWS V14.01,2013-01-03 13:09:00,
2013-01-03 08:11:00,9.6,0.9,30.15,NNE,18,1.0,8.0,67,0.00,,---,0.00,VWS V14.01,2013-01-03 13:11:00,
2013-01-03 08:14:00,9.9,0.8,30.14,WNW,295,0.0,8.0,66,0.00,,---,0.00,VWS V14.01,2013-01-03 13:14:00,
2013-01-03 08:15:00,9.9,0.8,30.14,NW,311,2.0,8.0,66,0.00,,---,0.00,VWS V14.01,2013-01-03 13:15:00,
2013-01-03 08:16:00,9.9,0.5,30.14,WNW,291,4.0,8.0,65,0.00,,---,0.00,VWS V14.01,2013-01-03 13:16:00,
2013-01-03 08:17:00,9.9,0.5,30.14,West,276,4.0,8.0,65,0.00,,---,0.00,VWS V14.01,2013-01-03 13:17:00,
2013-01-03 08:19:00,9.8,0.7,30.14,NW,318,4.0,8.0,66,0.00,,---,0.00,VWS V14.01,2013-01-03 13:19:00,
2013-01-03 08:20:00,9.8,0.4,30.14,NNW,338,1.0,8.0,65,0.00,,---,0.00,VWS V14.01,2013-01-03 13:20:00,
2013-01-03 08:21:00,9.7,0.3,30.14,SSW,201,1.0,8.0,65,0.00,,---,0.00,VWS V14.01,2013-01-03 13:21:00,
2013-01-03 08:22:00,9.7,0.6,30.14,North,353,2.0,8.0,66,0.00,,---,0.00,VWS V14.01,2013-01-03 13:22:00,
2013-01-03 08:25:00,9.8,0.7,30.14,WSW,257,2.0,8.0,66,0.00,,---,0.00,VWS V14.01,2013-01-03 13:25:00,
2013-01-03 08:27:00,9.8,0.7,30.14,WNW,291,0.0,8.0,66,0.00,,---,0.00,VWS V14.01,2013-01-03 13:27:00,
2013-01-03 08:28:00,9.8,0.7,30.14,West,259,4.0,8.0,66,0.00,,---,0.00,VWS V14.01,2013-01-03 13:28:00,
2013-01-03 08:30:00,9.7,0.6,30.13,WNW,301,1.0,3.0,66,0.00,,---,0.00,VWS V14.01,2013-01-03 13:30:00,
2013-01-03 08:31:00,9.7,0.6,30.13,NNW,333,5.0,6.0,66,0.00,,---,0.00,VWS V14.01,2013-01-03 13:31:00,
2013-01-03 08:33:00,9.6,0.5,30.13,West,269,2.0,6.0,66,0.00,,---,0.00,VWS V14.01,2013-01-03 13:33:00,
2013-01-03 08:34:00,9.6,0.5,30.13,West,271,1.0,6.0,66,0.00,,---,0.00,VWS V14.01,2013-01-03 13:34:00,
2013-01-03 08:35:00,9.7,0.6,30.13,WNW,297,3.0,6.0,66,0.00,,---,0.00,VWS V14.01,2013-01-03 13:35:00,
2013-01-03 08:37:00,9.8,0.7,30.13,WNW,285,1.0,6.0,66,0.00,,---,0.00,VWS V14.01,2013-01-03 13:37:00,
2013-01-03 08:39:00,9.8,0.4,30.13,West,280,3.0,6.0,65,0.00,,---,0.00,VWS V14.01,2013-01-03 13:39:00,
2013-01-03 08:40:00,9.7,0.3,30.13,WNW,283,0.0,6.0,65,0.00,,---,0.00,VWS V14.01,2013-01-03 13:40:00,
2013-01-03 08:41:00,9.8,0.7,30.13,NW,320,0.0,6.0,66,0.00,,---,0.00,VWS V14.01,2013-01-03 13:41:00,
2013-01-03 08:42:00,9.9,0.8,30.13,North,349,3.0,6.0,66,0.00,,---,0.00,VWS V14.01,2013-01-03 13:42:00,
2013-01-03 08:46:00,10.0,0.6,30.13,West,276,4.0,7.0,65,0.00,,---,0.00,VWS V14.01,2013-01-03 13:46:00,
2013-01-03 08:47:00,9.9,0.5,30.13,NNW,330,3.0,7.0,65,0.00,,---,0.00,VWS V14.01,2013-01-03 13:47:00,
2013-01-03 08:50:00,9.9,0.5,30.13,NW,305,1.0,7.0,65,0.00,,---,0.00,VWS V14.01,2013-01-03 13:50:00,
2013-01-03 08:51:00,10.0,0.6,30.13,West,277,3.0,7.0,65,0.00,,---,0.00,VWS V14.01,2013-01-03 13:51:00,
2013-01-03 08:53:00,9.8,0.4,30.13,North,360,1.0,7.0,65,0.00,,---,0.00,VWS V14.01,2013-01-03 13:53:00,
2013-01-03 08:55:00,10.0,0.9,30.14,NW,304,6.0,7.0,66,0.00,,---,0.00,VWS V14.01,2013-01-03 13:55:00,
2013-01-03 08:57:00,9.9,0.5,30.13,WNW,293,1.0,7.0,65,0.00,,---,0.00,VWS V14.01,2013-01-03 13:57:00,
2013-01-03 08:58:00,9.9,0.5,30.13,NW,311,2.0,7.0,65,0.00,,---,0.00,VWS V14.01,2013-01-03 13:58:00,
2013-01-03 09:00:00,10.1,1.0,30.14,NW,311,3.0,5.0,66,0.00,,---,0.00,VWS V14.01,2013-01-03 14:00:00,
2013-01-03 09:02:00,10.2,0.8,30.14,NNW,336,4.0,7.0,65,0.00,,---,0.00,VWS V14.01,2013-01-03 14:02:00,
2013-01-03 09:03:00,10.1,0.7,30.14,North,8,2.0,7.0,65,0.00,,---,0.00,VWS V14.01,2013-01-03 14:03:00,
2013-01-03 09:04:00,10.1,0.7,30.14,NNE,22,1.0,7.0,65,0.00,,---,0.00,VWS V14.01,2013-01-03 14:04:00,
2013-01-03 09:06:00,10.6,1.8,30.13,WSW,255,2.0,7.0,67,0.00,,---,0.00,VWS V14.01,2013-01-03 14:06:00,
2013-01-03 09:08:00,10.8,1.7,30.14,WSW,238,0.0,7.0,66,0.00,,---,0.00,VWS V14.01,2013-01-03 14:08:00,
2013-01-03 09:09:00,11.1,2.3,30.14,NW,309,2.0,7.0,67,0.00,,---,0.00,VWS V14.01,2013-01-03 14:09:00,
2013-01-03 09:11:00,11.2,1.7,30.14,WNW,288,7.0,8.0,65,0.00,,---,0.00,VWS V14.01,2013-01-03 14:11:00,
2013-01-03 09:14:00,10.8,1.4,30.14,NW,318,3.0,8.0,65,0.00,,---,0.00,VWS V14.01,2013-01-03 14:14:00,
2013-01-03 09:15:00,10.7,1.3,30.13,SW,228,7.0,8.0,65,0.00,,---,0.00,VWS V14.01,2013-01-03 14:15:00,
2013-01-03 09:16:00,10.7,1.3,30.13,WNW,288,5.0,8.0,65,0.00,,---,0.00,VWS V14.01,2013-01-03 14:16:00,
2013-01-03 09:19:00,10.7,1.6,30.13,NE,50,1.0,8.0,66,0.00,,---,0.00,VWS V14.01,2013-01-03 14:19:00,
2013-01-03 09:20:00,10.7,1.6,30.13,WNW,290,4.0,8.0,66,0.00,,---,0.00,VWS V14.01,2013-01-03 14:20:00,
2013-01-03 09:21:00,11.0,1.9,30.13,West,274,0.0,8.0,66,0.00,,---,0.00,VWS V14.01,2013-01-03 14:21:00,
2013-01-03 09:23:00,11.4,2.6,30.13,SW,235,2.0,8.0,67,0.00,,---,0.00,VWS V14.01,2013-01-03 14:23:00,
2013-01-03 09:24:00,11.5,2.4,30.13,WSW,239,2.0,8.0,66,0.00,,---,0.00,VWS V14.01,2013-01-03 14:24:00,
2013-01-03 09:26:00,11.6,2.8,30.13,NW,315,2.0,8.0,67,0.00,,---,0.00,VWS V14.01,2013-01-03 14:26:00,
2013-01-03 09:28:00,11.4,1.9,30.13,WSW,249,7.0,9.0,65,0.00,,---,0.00,VWS V14.01,2013-01-03 14:28:00,
2013-01-03 09:29:00,11.0,1.5,30.13,West,269,7.0,10.0,65,0.00,,---,0.00,VWS V14.01,2013-01-03 14:29:00,
2013-01-03 09:31:00,10.7,1.6,30.13,WSW,252,5.0,9.0,66,0.00,,---,0.00,VWS V14.01,2013-01-03 14:31:00,
2013-01-03 09:35:00,10.5,1.7,30.13,West,267,5.0,9.0,67,0.00,,---,0.00,VWS V14.01,2013-01-03 14:35:00,
2013-01-03 09:36:00,10.5,1.4,30.13,NW,311,5.0,9.0,66,0.00,,---,0.00,VWS V14.01,2013-01-03 14:36:00,
2013-01-03 09:37:00,10.5,1.4,30.13,WNW,298,6.0,9.0,66,0.00,,---,0.00,VWS V14.01,2013-01-03 14:37:00,
2013-01-03 09:41:00,10.4,1.3,30.14,North,1,2.0,9.0,66,0.00,,---,0.00,VWS V14.01,2013-01-03 14:41:00,
2013-01-03 09:42:00,10.4,1.3,30.14,WSW,246,8.0,9.0,66,0.00,,---,0.00,VWS V14.01,2013-01-03 14:42:00,
2013-01-03 09:46:00,10.6,1.5,30.14,WSW,239,4.0,10.0,66,0.00,,---,0.00,VWS V14.01,2013-01-03 14:46:00,
2013-01-03 09:47:00,10.6,1.5,30.14,WSW,242,3.0,10.0,66,0.00,,---,0.00,VWS V14.01,2013-01-03 14:47:00,
2013-01-03 09:51:00,11.1,2.0,30.14,NW,311,7.0,10.0,66,0.00,,---,0.00,VWS V14.01,2013-01-03 14:51:00,
2013-01-03 09:52:00,11.1,1.6,30.14,NW,318,9.0,10.0,65,0.00,,---,0.00,VWS V14.01,2013-01-03 14:52:00,
2013-01-03 09:53:00,11.1,1.6,30.14,WNW,302,2.0,10.0,65,0.00,,---,0.00,VWS V14.01,2013-01-03 14:53:00,
2013-01-03 09:54:00,11.0,1.5,30.14,NW,320,2.0,10.0,65,0.00,,---,0.00,VWS V14.01,2013-01-03 14:54:00,
2013-01-03 09:57:00,11.5,2.4,30.14,North,360,2.0,10.0,66,0.00,,---,0.00,VWS V14.01,2013-01-03 14:57:00,
2013-01-03 09:59:00,11.8,2.0,30.14,WNW,286,2.0,10.0,64,0.00,,---,0.00,VWS V14.01,2013-01-03 14:59:00,
2013-01-03 10:02:00,11.5,1.7,30.14,WSW,257,7.0,9.0,64,0.00,,---,0.00,VWS V14.01,2013-01-03 15:02:00,
2013-01-03 10:04:00,11.7,2.5,30.14,NW,309,3.0,9.0,66,0.00,,---,0.00,VWS V14.01,2013-01-03 15:04:00,
2013-01-03 10:05:00,11.7,2.5,30.14,WSW,246,7.0,9.0,66,0.00,,---,0.00,VWS V14.01,2013-01-03 15:05:00,
2013-01-03 10:07:00,11.8,2.3,30.14,NNW,343,3.0,9.0,65,0.00,,---,0.00,VWS V14.01,2013-01-03 15:07:00,
2013-01-03 10:09:00,11.9,2.4,30.14,WSW,243,6.0,9.0,65,0.00,,---,0.00,VWS V14.01,2013-01-03 15:09:00,
2013-01-03 10:10:00,11.9,2.4,30.14,West,263,5.0,9.0,65,0.00,,---,0.00,VWS V14.01,2013-01-03 15:10:00,
2013-01-03 10:13:00,11.8,2.3,30.14,West,263,3.0,9.0,65,0.00,,---,0.00,VWS V14.01,2013-01-03 15:13:00,
2013-01-03 10:15:00,11.8,2.3,30.14,WNW,300,4.0,9.0,65,0.00,,---,0.00,VWS V14.01,2013-01-03 15:15:00,
2013-01-03 10:18:00,12.0,2.8,30.13,SSW,195,1.0,9.0,66,0.00,,---,0.00,VWS V14.01,2013-01-03 15:18:00,
2013-01-03 10:19:00,12.2,3.0,30.13,ENE,58,1.0,9.0,66,0.00,,---,0.00,VWS V14.01,2013-01-03 15:19:00,
2013-01-03 10:21:00,12.8,4.2,30.13,WSW,252,4.0,9.0,68,0.00,,---,0.00,VWS V14.01,2013-01-03 15:21:00,
2013-01-03 10:22:00,12.8,3.3,30.13,WNW,288,5.0,9.0,65,0.00,,---,0.00,VWS V14.01,2013-01-03 15:22:00,
2013-01-03 10:23:00,12.9,3.0,30.13,SSW,193,1.0,9.0,64,0.00,,---,0.00,VWS V14.01,2013-01-03 15:23:00,
2013-01-03 10:24:00,13.0,3.5,30.13,West,266,2.0,9.0,65,0.00,,---,0.00,VWS V14.01,2013-01-03 15:24:00,
2013-01-03 10:26:00,13.0,3.1,30.13,WNW,295,5.0,9.0,64,0.00,,---,0.00,VWS V14.01,2013-01-03 15:26:00,
2013-01-03 10:28:00,12.9,2.7,30.13,WNW,300,2.0,9.0,63,0.00,,---,0.00,VWS V14.01,2013-01-03 15:28:00,
2013-01-03 10:29:00,12.8,2.6,30.13,West,279,6.0,9.0,63,0.00,,---,0.00,VWS V14.01,2013-01-03 15:29:00,
2013-01-03 10:32:00,12.7,3.2,30.13,West,262,5.0,7.0,65,0.00,,---,0.00,VWS V14.01,2013-01-03 15:32:00,
2013-01-03 10:34:00,12.9,3.7,30.13,WNW,288,4.0,7.0,66,0.00,,---,0.00,VWS V14.01,2013-01-03 15:34:00,
2013-01-03 10:38:00,13.1,3.6,30.12,WSW,250,2.0,10.0,65,0.00,,---,0.00,VWS V14.01,2013-01-03 15:38:00,
2013-01-03 10:39:00,13.2,3.7,30.12,WSW,257,8.0,11.0,65,0.00,,---,0.00,VWS V14.01,2013-01-03 15:39:00,
2013-01-03 10:40:00,13.2,3.3,30.12,SSW,212,7.0,11.0,64,0.00,,---,0.00,VWS V14.01,2013-01-03 15:40:00,
2013-01-03 10:43:00,13.2,3.3,30.12,SSE,166,1.0,11.0,64,0.00,,---,0.00,VWS V14.01,2013-01-03 15:43:00,
2013-01-03 10:45:00,13.4,3.8,30.12,West,278,1.0,11.0,65,0.00,,---,0.00,VWS V14.01,2013-01-03 15:45:00,
2013-01-03 10:46:00,13.5,3.9,30.12,SW,224,1.0,11.0,65,0.00,,---,0.00,VWS V14.01,2013-01-03 15:46:00,
2013-01-03 10:49:00,13.7,3.1,30.12,SSW,207,2.0,11.0,62,0.00,,---,0.00,VWS V14.01,2013-01-03 15:49:00,
2013-01-03 10:50:00,13.8,3.5,30.12,ENE,69,5.0,11.0,63,0.00,,---,0.00,VWS V14.01,2013-01-03 15:50:00,
2013-01-03 10:51:00,13.9,4.0,30.12,WSW,257,10.0,11.0,64,0.00,,---,0.00,VWS V14.01,2013-01-03 15:51:00,
2013-01-03 10:52:00,13.9,4.0,30.12,West,262,6.0,11.0,64,0.00,,---,0.00,VWS V14.01,2013-01-03 15:52:00,
2013-01-03 10:54:00,13.9,3.6,30.12,WSW,239,2.0,11.0,63,0.00,,---,0.00,VWS V14.01,2013-01-03 15:54:00,
2013-01-03 10:56:00,14.1,4.2,30.12,SW,228,3.0,11.0,64,0.00,,---,0.00,VWS V14.01,2013-01-03 15:56:00,
2013-01-03 10:57:00,14.1,4.5,30.12,WSW,251,5.0,11.0,65,0.00,,---,0.00,VWS V14.01,2013-01-03 15:57:00,
2013-01-03 11:00:00,14.1,3.8,30.12,WNW,285,3.0,11.0,63,0.00,,---,0.00,VWS V14.01,2013-01-03 16:00:00,
2013-01-03 11:01:00,14.3,4.0,30.12,WNW,301,4.0,6.0,63,0.00,,---,0.00,VWS V14.01,2013-01-03 16:01:00,
2013-01-03 11:02:00,14.3,4.0,30.12,WNW,291,3.0,6.0,63,0.00,,---,0.00,VWS V14.01,2013-01-03 16:02:00,
2013-01-03 11:03:00,14.5,3.9,30.12,SW,227,2.0,6.0,62,0.00,,---,0.00,VWS V14.01,2013-01-03 16:03:00,
2013-01-03 11:05:00,14.5,3.2,30.12,WSW,239,3.0,7.0,60,0.00,,---,0.00,VWS V14.01,2013-01-03 16:05:00,
2013-01-03 11:06:00,14.5,3.2,30.12,North,357,1.0,7.0,60,0.00,,---,0.00,VWS V14.01,2013-01-03 16:06:00,
2013-01-03 11:07:00,14.7,3.7,30.12,SW,214,2.0,7.0,61,0.00,,---,0.00,VWS V14.01,2013-01-03 16:07:00,
2013-01-03 11:08:00,14.8,3.4,30.12,SW,218,4.0,7.0,60,0.00,,---,0.00,VWS V14.01,2013-01-03 16:08:00,
2013-01-03 11:10:00,14.9,3.2,30.12,West,261,5.0,7.0,59,0.00,,---,0.00,VWS V14.01,2013-01-03 16:10:00,
2013-01-03 11:12:00,14.8,3.4,30.11,WNW,291,4.0,9.0,60,0.00,,---,0.00,VWS V14.01,2013-01-03 16:12:00,
2013-01-03 11:13:00,14.8,3.8,30.11,West,281,1.0,9.0,61,0.00,,---,0.00,VWS V14.01,2013-01-03 16:13:00,
2013-01-03 11:16:00,15.1,4.4,30.11,WSW,249,1.0,9.0,62,0.00,,---,0.00,VWS V14.01,2013-01-03 16:16:00,
2013-01-03 11:17:00,15.5,4.8,30.11,SW,227,4.0,9.0,62,0.00,,---,0.00,VWS V14.01,2013-01-03 16:17:00,
2013-01-03 11:19:00,15.7,5.4,30.11,West,260,4.0,9.0,63,0.00,,---,0.00,VWS V14.01,2013-01-03 16:19:00,
2013-01-03 11:20:00,15.6,4.6,30.11,SW,232,4.0,9.0,61,0.00,,---,0.00,VWS V14.01,2013-01-03 16:20:00,
2013-01-03 11:21:00,15.6,4.6,30.11,WSW,240,6.0,9.0,61,0.00,,---,0.00,VWS V14.01,2013-01-03 16:21:00,
2013-01-03 11:23:00,15.4,4.0,30.11,WSW,246,3.0,9.0,60,0.00,,---,0.00,VWS V14.01,2013-01-03 16:23:00,
2013-01-03 11:24:00,15.2,3.5,30.11,West,277,3.0,9.0,59,0.00,,---,0.00,VWS V14.01,2013-01-03 16:24:00,
2013-01-03 11:26:00,15.3,4.6,30.11,SSW,204,3.0,9.0,62,0.00,,---,0.00,VWS V14.01,2013-01-03 16:26:00,
2013-01-03 11:27:00,15.4,4.7,30.11,West,270,5.0,9.0,62,0.00,,---,0.00,VWS V14.01,2013-01-03 16:27:00,
2013-01-03 11:28:00,15.4,4.4,30.11,SW,233,5.0,9.0,61,0.00,,---,0.00,VWS V14.01,2013-01-03 16:28:00,
2013-01-03 11:30:00,15.6,4.9,30.10,West,261,6.0,12.0,62,0.00,,---,0.00,VWS V14.01,2013-01-03 16:30:00,
2013-01-03 11:32:00,15.4,3.7,30.10,SW,214,1.0,8.0,59,0.00,,---,0.00,VWS V14.01,2013-01-03 16:32:00,
2013-01-03 11:34:00,15.5,4.5,30.10,WNW,295,4.0,8.0,61,0.00,,---,0.00,VWS V14.01,2013-01-03 16:34:00,
2013-01-03 11:35:00,15.6,4.6,30.10,SW,217,3.0,8.0,61,0.00,,---,0.00,VWS V14.01,2013-01-03 16:35:00,
2013-01-03 11:38:00,15.8,4.4,30.10,WSW,249,8.0,8.0,60,0.00,,---,0.00,VWS V14.01,2013-01-03 16:38:00,
2013-01-03 11:39:00,15.7,3.9,30.10,WSW,246,7.0,8.0,59,0.00,,---,0.00,VWS V14.01,2013-01-03 16:39:00,
2013-01-03 11:40:00,15.6,3.5,30.10,SW,224,2.0,8.0,58,0.00,,---,0.00,VWS V14.01,2013-01-03 16:40:00,
2013-01-03 11:41:00,15.5,3.4,30.10,WNW,282,3.0,8.0,58,0.00,,---,0.00,VWS V14.01,2013-01-03 16:41:00,
2013-01-03 11:43:00,15.6,3.8,30.10,WSW,257,5.0,10.0,59,0.00,,---,0.00,VWS V14.01,2013-01-03 16:43:00,
2013-01-03 11:44:00,15.6,3.5,30.10,WNW,288,3.0,10.0,58,0.00,,---,0.00,VWS V14.01,2013-01-03 16:44:00,
2013-01-03 11:45:00,15.7,3.9,30.10,WSW,248,7.0,10.0,59,0.00,,---,0.00,VWS V14.01,2013-01-03 16:45:00,
2013-01-03 11:46:00,15.8,4.0,30.10,WNW,284,8.0,10.0,59,0.00,,---,0.00,VWS V14.01,2013-01-03 16:46:00,
2013-01-03 11:48:00,15.8,2.9,30.10,WSW,241,4.0,10.0,56,0.00,,---,0.00,VWS V14.01,2013-01-03 16:48:00,
2013-01-03 11:50:00,15.9,3.4,30.09,NW,305,6.0,10.0,57,0.00,,---,0.00,VWS V14.01,2013-01-03 16:50:00,
2013-01-03 11:51:00,16.0,3.5,30.09,West,269,3.0,10.0,57,0.00,,---,0.00,VWS V14.01,2013-01-03 16:51:00,
2013-01-03 11:52:00,16.0,3.1,30.09,WSW,246,8.0,10.0,56,0.00,,---,0.00,VWS V14.01,2013-01-03 16:52:00,
2013-01-03 11:54:00,16.1,3.6,30.09,West,261,3.0,10.0,57,0.00,,---,0.00,VWS V14.01,2013-01-03 16:54:00,
2013-01-03 11:56:00,16.3,3.4,30.09,SW,233,4.0,10.0,56,0.00,,---,0.00,VWS V14.01,2013-01-03 16:56:00,
2013-01-03 11:57:00,16.4,3.5,30.09,SW,233,1.0,10.0,56,0.00,,---,0.00,VWS V14.01,2013-01-03 16:57:00,
2013-01-03 11:59:00,16.4,3.5,30.09,WSW,254,8.0,10.0,56,0.00,,---,0.00,VWS V14.01,2013-01-03 16:59:00,
2013-01-03 12:00:00,16.5,3.5,30.09,WSW,249,7.0,10.0,56,0.00,,---,0.00,VWS V14.01,2013-01-03 17:00:00,
2013-01-03 12:01:00,16.5,3.5,30.09,NNW,335,8.0,12.0,56,0.00,,---,0.00,VWS V14.01,2013-01-03 17:01:00,
2013-01-03 12:02:00,16.5,3.5,30.09,West,273,4.0,12.0,56,0.00,,---,0.00,VWS V14.01,2013-01-03 17:02:00,
2013-01-03 12:04:00,16.6,3.3,30.09,NE,34,2.0,12.0,55,0.00,,---,0.00,VWS V14.01,2013-01-03 17:04:00,
2013-01-03 12:06:00,17.0,4.0,30.09,West,260,5.0,12.0,56,0.00,,---,0.00,VWS V14.01,2013-01-03 17:06:00,
2013-01-03 12:07:00,17.0,4.0,30.09,WNW,291,6.0,12.0,56,0.00,,---,0.00,VWS V14.01,2013-01-03 17:07:00,
2013-01-03 12:08:00,16.9,3.1,30.09,West,266,9.0,12.0,54,0.00,,---,0.00,VWS V14.01,2013-01-03 17:08:00,
2013-01-03 12:11:00,16.8,2.7,30.09,West,276,1.0,12.0,53,0.00,,---,0.00,VWS V14.01,2013-01-03 17:11:00,
2013-01-03 12:12:00,16.8,2.7,30.09,WNW,291,5.0,12.0,53,0.00,,---,0.00,VWS V14.01,2013-01-03 17:12:00,
2013-01-03 12:13:00,16.7,2.1,30.08,West,276,2.0,12.0,52,0.00,,---,0.00,VWS V14.01,2013-01-03 17:13:00,
2013-01-03 12:16:00,16.7,2.5,30.08,WNW,284,4.0,12.0,53,0.00,,---,0.00,VWS V14.01,2013-01-03 17:16:00,
2013-01-03 12:17:00,16.7,2.5,30.08,NW,321,1.0,12.0,53,0.00,,---,0.00,VWS V14.01,2013-01-03 17:17:00,
2013-01-03 12:18:00,16.8,3.5,30.08,WSW,239,7.0,12.0,55,0.00,,---,0.00,VWS V14.01,2013-01-03 17:18:00,
2013-01-03 12:22:00,17.4,3.6,30.08,West,274,1.0,12.0,54,0.00,,---,0.00,VWS V14.01,2013-01-03 17:22:00,
2013-01-03 12:23:00,17.7,3.9,30.08,West,278,5.0,12.0,54,0.00,,---,0.00,VWS V14.01,2013-01-03 17:23:00,
2013-01-03 12:24:00,17.8,3.2,30.08,NNW,330,2.0,12.0,52,0.00,,---,0.00,VWS V14.01,2013-01-03 17:24:00,
2013-01-03 12:27:00,18.3,3.2,30.08,NW,305,2.0,12.0,51,0.00,,---,0.00,VWS V14.01,2013-01-03 17:27:00,
2013-01-03 12:29:00,18.3,2.8,30.07,NNE,22,3.0,12.0,50,0.00,,---,0.00,VWS V14.01,2013-01-03 17:29:00,
2013-01-03 12:31:00,18.4,2.9,30.07,South,174,3.0,6.0,50,0.00,,---,0.00,VWS V14.01,2013-01-03 17:31:00,
2013-01-03 12:32:00,18.4,3.3,30.07,NW,304,3.0,6.0,51,0.00,,---,0.00,VWS V14.01,2013-01-03 17:32:00,
2013-01-03 12:33:00,18.3,3.2,30.07,SW,232,4.0,6.0,51,0.00,,---,0.00,VWS V14.01,2013-01-03 17:33:00,
2013-01-03 12:35:00,18.4,2.9,30.07,NE,43,1.0,6.0,50,0.00,,---,0.00,VWS V14.01,2013-01-03 17:35:00,
2013-01-03 12:37:00,18.5,3.4,30.07,West,269,3.0,6.0,51,0.00,,---,0.00,VWS V14.01,2013-01-03 17:37:00,
2013-01-03 12:38:00,18.5,3.0,30.07,SW,219,7.0,8.0,50,0.00,,---,0.00,VWS V14.01,2013-01-03 17:38:00,
2013-01-03 12:40:00,18.5,3.4,30.07,WSW,248,2.0,8.0,51,0.00,,---,0.00,VWS V14.01,2013-01-03 17:40:00,
2013-01-03 12:43:00,18.5,3.0,30.06,WSW,257,3.0,8.0,50,0.00,,---,0.00,VWS V14.01,2013-01-03 17:43:00,
2013-01-03 12:45:00,18.5,3.0,30.06,WNW,295,7.0,8.0,50,0.00,,---,0.00,VWS V14.01,2013-01-03 17:45:00,
2013-01-03 12:48:00,18.2,2.3,30.06,WNW,298,2.0,14.0,49,0.00,,---,0.00,VWS V14.01,2013-01-03 17:48:00,
2013-01-03 12:49:00,18.2,2.7,30.06,West,259,2.0,14.0,50,0.00,,---,0.00,VWS V14.01,2013-01-03 17:49:00,
2013-01-03 12:51:00,18.4,3.7,30.06,SW,235,6.0,14.0,52,0.00,,---,0.00,VWS V14.01,2013-01-03 17:51:00,
2013-01-03 12:53:00,18.6,4.3,30.06,South,169,1.0,14.0,53,0.00,,---,0.00,VWS V14.01,2013-01-03 17:53:00,
2013-01-03 12:54:00,18.6,4.3,30.06,WSW,249,4.0,14.0,53,0.00,,---,0.00,VWS V14.01,2013-01-03 17:54:00,
2013-01-03 12:56:00,18.9,3.3,30.07,West,260,7.0,14.0,50,0.00,,---,0.00,VWS V14.01,2013-01-03 17:56:00,
2013-01-03 12:58:00,18.8,2.8,30.07,West,269,4.0,14.0,49,0.00,,---,0.00,VWS V14.01,2013-01-03 17:58:00,
2013-01-03 12:59:00,18.8,3.2,30.07,West,278,6.0,14.0,50,0.00,,---,0.00,VWS V14.01,2013-01-03 17:59:00,
2013-01-03 13:01:00,18.8,3.7,30.07,NNW,343,2.0,3.0,51,0.00,,---,0.00,VWS V14.01,2013-01-03 18:01:00,
2013-01-03 13:02:00,18.9,3.8,30.06,North,359,1.0,3.0,51,0.00,,---,0.00,VWS V14.01,2013-01-03 18:02:00,
2013-01-03 13:04:00,19.2,4.9,30.06,West,271,3.0,3.0,53,0.00,,---,0.00,VWS V14.01,2013-01-03 18:04:00,
2013-01-03 13:05:00,19.3,4.1,30.06,West,260,6.0,6.0,51,0.00,,---,0.00,VWS V14.01,2013-01-03 18:05:00,
2013-01-03 13:07:00,19.3,3.7,30.07,WSW,242,7.0,8.0,50,0.00,,---,0.00,VWS V14.01,2013-01-03 18:07:00,
2013-01-03 13:09:00,19.3,3.3,30.06,West,266,12.0,14.0,49,0.00,,---,0.00,VWS V14.01,2013-01-03 18:09:00,
2013-01-03 13:10:00,19.2,3.2,30.06,West,262,6.0,14.0,49,0.00,,---,0.00,VWS V14.01,2013-01-03 18:10:00,
2013-01-03 13:13:00,19.2,3.6,30.06,SW,225,3.0,14.0,50,0.00,,---,0.00,VWS V14.01,2013-01-03 18:13:00,
2013-01-03 13:14:00,19.3,3.7,30.06,SW,233,6.0,14.0,50,0.00,,---,0.00,VWS V14.01,2013-01-03 18:14:00,
2013-01-03 13:15:00,19.5,3.9,30.06,WNW,290,7.0,14.0,50,0.00,,---,0.00,VWS V14.01,2013-01-03 18:15:00,
2013-01-03 13:18:00,19.6,3.5,30.06,WNW,283,7.0,14.0,49,0.00,,---,0.00,VWS V14.01,2013-01-03 18:18:00,
2013-01-03 13:19:00,19.7,3.2,30.06,NW,304,3.0,14.0,48,0.00,,---,0.00,VWS V14.01,2013-01-03 18:19:00,
2013-01-03 13:20:00,19.6,3.5,30.06,WNW,288,7.0,14.0,49,0.00,,---,0.00,VWS V14.01,2013-01-03 18:20:00,
2013-01-03 13:24:00,19.6,3.5,30.06,WNW,283,5.0,14.0,49,0.00,,---,0.00,VWS V14.01,2013-01-03 18:24:00,
2013-01-03 13:25:00,19.7,3.7,30.06,SSW,200,5.0,14.0,49,0.00,,---,0.00,VWS V14.01,2013-01-03 18:25:00,
2013-01-03 13:26:00,19.8,4.2,30.06,ESE,120,2.0,14.0,50,0.00,,---,0.00,VWS V14.01,2013-01-03 18:26:00,
2013-01-03 13:29:00,19.8,3.7,30.06,WSW,239,9.0,14.0,49,0.00,,---,0.00,VWS V14.01,2013-01-03 18:29:00,
2013-01-03 13:30:00,19.8,3.3,30.06,West,281,4.0,4.0,48,0.00,,---,0.00,VWS V14.01,2013-01-03 18:30:00,
2013-01-03 13:32:00,19.8,3.3,30.06,West,269,5.0,10.0,48,0.00,,---,0.00,VWS V14.01,2013-01-03 18:32:00,
2013-01-03 13:34:00,19.7,2.8,30.06,East,82,4.0,12.0,47,0.00,,---,0.00,VWS V14.01,2013-01-03 18:34:00,
2013-01-03 13:36:00,19.7,3.7,30.06,SW,233,16.0,16.0,49,0.00,,---,0.00,VWS V14.01,2013-01-03 18:36:00,
2013-01-03 13:37:00,19.7,3.7,30.06,SSW,204,4.0,16.0,49,0.00,,---,0.00,VWS V14.01,2013-01-03 18:37:00,
2013-01-03 13:39:00,19.7,3.2,30.06,WSW,254,5.0,16.0,48,0.00,,---,0.00,VWS V14.01,2013-01-03 18:39:00,
2013-01-03 13:41:00,19.7,3.7,30.06,SW,236,5.0,16.0,49,0.00,,---,0.00,VWS V14.01,2013-01-03 18:41:00,
2013-01-03 13:43:00,19.7,3.7,30.05,West,261,8.0,16.0,49,0.00,,---,0.00,VWS V14.01,2013-01-03 18:43:00,
2013-01-03 13:45:00,19.5,3.0,30.05,WSW,249,4.0,16.0,48,0.00,,---,0.00,VWS V14.01,2013-01-03 18:45:00,
2013-01-03 13:46:00,19.5,3.5,30.05,West,262,5.0,16.0,49,0.00,,---,0.00,VWS V14.01,2013-01-03 18:46:00,
2013-01-03 13:47:00,19.5,3.5,30.05,NW,325,2.0,16.0,49,0.00,,---,0.00,VWS V14.01,2013-01-03 18:47:00,
2013-01-03 13:48:00,19.6,4.0,30.05,SSW,212,5.0,16.0,50,0.00,,---,0.00,VWS V14.01,2013-01-03 18:48:00,
2013-01-03 13:52:00,19.6,3.5,30.05,West,267,8.0,16.0,49,0.00,,---,0.00,VWS V14.01,2013-01-03 18:52:00,
2013-01-03 13:53:00,19.5,3.5,30.05,SW,226,7.0,16.0,49,0.00,,---,0.00,VWS V14.01,2013-01-03 18:53:00,
2013-01-03 13:55:00,19.5,3.5,30.05,WSW,256,7.0,16.0,49,0.00,,---,0.00,VWS V14.01,2013-01-03 18:55:00,
2013-01-03 13:57:00,19.4,2.9,30.05,WSW,258,5.0,16.0,48,0.00,,---,0.00,VWS V14.01,2013-01-03 18:57:00,
2013-01-03 13:58:00,19.4,2.9,30.05,West,261,5.0,16.0,48,0.00,,---,0.00,VWS V14.01,2013-01-03 18:58:00,
2013-01-03 13:59:00,19.4,2.9,30.05,West,262,13.0,16.0,48,0.00,,---,0.00,VWS V14.01,2013-01-03 18:59:00,
2013-01-03 14:02:00,19.3,2.4,30.05,West,276,5.0,15.0,47,0.00,,---,0.00,VWS V14.01,2013-01-03 19:02:00,
2013-01-03 14:03:00,19.3,2.4,30.05,West,274,10.0,15.0,47,0.00,,---,0.00,VWS V14.01,2013-01-03 19:03:00,
2013-01-03 14:04:00,19.3,2.4,30.05,West,266,6.0,15.0,47,0.00,,---,0.00,VWS V14.01,2013-01-03 19:04:00,
2013-01-03 14:07:00,19.4,2.9,30.05,WNW,290,6.0,15.0,48,0.00,,---,0.00,VWS V14.01,2013-01-03 19:07:00,
2013-01-03 14:08:00,19.4,2.5,30.05,NW,307,8.0,15.0,47,0.00,,---,0.00,VWS V14.01,2013-01-03 19:08:00,
2013-01-03 14:09:00,19.4,2.0,30.05,West,262,11.0,15.0,46,0.00,,---,0.00,VWS V14.01,2013-01-03 19:09:00,
2013-01-03 14:10:00,19.3,1.9,30.05,WSW,239,9.0,15.0,46,0.00,,---,0.00,VWS V14.01,2013-01-03 19:10:00,
2013-01-03 14:12:00,19.3,2.4,30.05,SW,224,3.0,15.0,47,0.00,,---,0.00,VWS V14.01,2013-01-03 19:12:00,
2013-01-03 14:13:00,19.4,3.4,30.05,WNW,298,2.0,15.0,49,0.00,,---,0.00,VWS V14.01,2013-01-03 19:13:00,
2013-01-03 14:14:00,19.4,2.9,30.05,West,266,6.0,15.0,48,0.00,,---,0.00,VWS V14.01,2013-01-03 19:14:00,
2013-01-03 14:16:00,19.4,2.0,30.05,NW,323,6.0,15.0,46,0.00,,---,0.00,VWS V14.01,2013-01-03 19:16:00,
2013-01-03 14:18:00,19.3,1.9,30.05,West,264,9.0,15.0,46,0.00,,---,0.00,VWS V14.01,2013-01-03 19:18:00,
2013-01-03 14:49:00,19.1,2.7,30.03,WNW,282,8.0,16.0,48,0.00,,---,0.00,VWS V14.01,2013-01-03 19:49:00,
2013-01-03 14:52:00,18.8,1.9,30.03,WSW,254,3.0,16.0,47,0.00,,---,0.00,VWS V14.01,2013-01-03 19:52:00,
2013-01-03 14:53:00,18.8,1.9,30.03,SE,139,5.0,16.0,47,0.00,,---,0.00,VWS V14.01,2013-01-03 19:53:00,
2013-01-03 14:54:00,18.8,1.9,30.03,SW,217,5.0,16.0,47,0.00,,---,0.00,VWS V14.01,2013-01-03 19:54:00,
2013-01-03 14:55:00,18.8,2.4,30.03,WNW,284,5.0,16.0,48,0.00,,---,0.00,VWS V14.01,2013-01-03 19:55:00,
2013-01-03 14:57:00,18.7,2.3,30.03,NW,321,6.0,16.0,48,0.00,,---,0.00,VWS V14.01,2013-01-03 19:57:00,
2013-01-03 14:58:00,18.6,2.2,30.03,WSW,239,9.0,16.0,48,0.00,,---,0.00,VWS V14.01,2013-01-03 19:58:00,
2013-01-03 15:00:00,18.6,2.2,30.03,WNW,291,3.0,7.0,48,0.00,,---,0.00,VWS V14.01,2013-01-03 20:00:00,
2013-01-03 15:01:00,18.5,1.6,30.03,WNW,293,3.0,7.0,47,0.00,,---,0.00,VWS V14.01,2013-01-03 20:01:00,
2013-01-03 15:03:00,18.6,2.2,30.03,WSW,252,9.0,9.0,48,0.00,,---,0.00,VWS V14.01,2013-01-03 20:03:00,
2013-01-03 15:06:00,18.5,1.6,30.03,WSW,246,11.0,11.0,47,0.00,,---,0.00,VWS V14.01,2013-01-03 20:06:00,
2013-01-03 15:07:00,18.5,1.6,30.03,West,274,7.0,11.0,47,0.00,,---,0.00,VWS V14.01,2013-01-03 20:07:00,
2013-01-03 15:08:00,18.5,2.1,30.03,SW,231,9.0,11.0,48,0.00,,---,0.00,VWS V14.01,2013-01-03 20:08:00,
2013-01-03 15:09:00,18.5,2.5,30.03,WNW,288,7.0,11.0,49,0.00,,---,0.00,VWS V14.01,2013-01-03 20:09:00,
2013-01-03 15:12:00,18.5,2.1,30.03,WNW,288,6.0,11.0,48,0.00,,---,0.00,VWS V14.01,2013-01-03 20:12:00,
2013-01-03 15:13:00,18.4,1.5,30.03,WNW,285,5.0,11.0,47,0.00,,---,0.00,VWS V14.01,2013-01-03 20:13:00,
2013-01-03 15:14:00,18.4,1.5,30.03,SW,233,5.0,11.0,47,0.00,,---,0.00,VWS V14.01,2013-01-03 20:14:00,
2013-01-03 15:17:00,18.4,1.5,30.03,WSW,255,4.0,11.0,47,0.00,,---,0.00,VWS V14.01,2013-01-03 20:17:00,
2013-01-03 15:18:00,18.4,1.5,30.03,WNW,288,2.0,11.0,47,0.00,,---,0.00,VWS V14.01,2013-01-03 20:18:00,
2013-01-03 15:19:00,18.4,1.5,30.03,SSW,194,5.0,11.0,47,0.00,,---,0.00,VWS V14.01,2013-01-03 20:19:00,
2013-01-03 15:20:00,18.4,1.5,30.03,WSW,249,6.0,11.0,47,0.00,,---,0.00,VWS V14.01,2013-01-03 20:20:00,
2013-01-03 15:23:00,18.4,1.1,30.03,West,271,7.0,11.0,46,0.00,,---,0.00,VWS V14.01,2013-01-03 20:23:00,
2013-01-03 15:24:00,18.4,1.1,30.03,WNW,298,12.0,12.0,46,0.00,,---,0.00,VWS V14.01,2013-01-03 20:24:00,
2013-01-03 15:26:00,18.4,1.1,30.03,WNW,283,5.0,12.0,46,0.00,,---,0.00,VWS V14.01,2013-01-03 20:26:00,
2013-01-03 15:28:00,18.5,1.2,30.03,NW,318,3.0,12.0,46,0.00,,---,0.00,VWS V14.01,2013-01-03 20:28:00,
2013-01-03 15:30:00,18.5,1.6,30.03,WSW,242,13.0,13.0,47,0.00,,---,0.00,VWS V14.01,2013-01-03 20:30:00,
2013-01-03 15:31:00,18.6,1.3,30.03,West,269,7.0,14.0,46,0.00,,---,0.00,VWS V14.01,2013-01-03 20:31:00,
2013-01-03 15:34:00,18.8,0.5,30.04,NNE,12,3.0,14.0,44,0.00,,---,0.00,VWS V14.01,2013-01-03 20:34:00,
2013-01-03 15:36:00,18.9,1.1,30.04,SW,232,4.0,14.0,45,0.00,,---,0.00,VWS V14.01,2013-01-03 20:36:00,
2013-01-03 15:37:00,19.0,1.2,30.04,SSW,193,6.0,14.0,45,0.00,,---,0.00,VWS V14.01,2013-01-03 20:37:00,
2013-01-03 15:39:00,19.2,0.9,30.04,West,278,5.0,14.0,44,0.00,,---,0.00,VWS V14.01,2013-01-03 20:39:00,
2013-01-03 15:41:00,19.3,1.0,30.04,WSW,258,6.0,14.0,44,0.00,,---,0.00,VWS V14.01,2013-01-03 20:41:00,
2013-01-03 15:42:00,19.4,1.5,30.04,WNW,291,5.0,14.0,45,0.00,,---,0.00,VWS V14.01,2013-01-03 20:42:00,
2013-01-03 15:43:00,19.5,0.7,30.04,West,261,5.0,14.0,43,0.00,,---,0.00,VWS V14.01,2013-01-03 20:43:00,
2013-01-03 15:45:00,19.7,0.8,30.04,SE,141,4.0,14.0,43,0.00,,---,0.00,VWS V14.01,2013-01-03 20:45:00,
2013-01-03 15:47:00,19.7,0.3,30.04,SSW,212,3.0,14.0,42,0.00,,---,0.00,VWS V14.01,2013-01-03 20:47:00,
2013-01-03 15:48:00,19.8,0.4,30.04,West,264,0.0,14.0,42,0.00,,---,0.00,VWS V14.01,2013-01-03 20:48:00,
2013-01-03 15:51:00,20.0,0.6,30.04,West,260,3.0,14.0,42,0.00,,---,0.00,VWS V14.01,2013-01-03 20:51:00,
2013-01-03 15:52:00,20.0,0.6,30.04,WNW,291,4.0,14.0,42,0.00,,---,0.00,VWS V14.01,2013-01-03 20:52:00,
2013-01-03 15:53:00,20.0,0.1,30.04,West,269,6.0,14.0,41,0.00,,---,0.00,VWS V14.01,2013-01-03 20:53:00,
2013-01-03 15:56:00,19.9,-0.5,30.04,WNW,302,6.0,14.0,40,0.00,,---,0.00,VWS V14.01,2013-01-03 20:56:00,
2013-01-03 15:58:00,19.7,-0.2,30.04,West,264,4.0,14.0,41,0.00,,---,0.00,VWS V14.01,2013-01-03 20:58:00,
2013-01-03 15:59:00,19.7,-0.7,30.04,WSW,242,4.0,14.0,40,0.00,,---,0.00,VWS V14.01,2013-01-03 20:59:00,
2013-01-03 16:00:00,19.6,-0.3,30.04,SW,231,4.0,4.0,41,0.00,,---,0.00,VWS V14.01,2013-01-03 21:00:00,
2013-01-03 16:01:00,19.6,-0.3,30.04,NW,314,4.0,7.0,41,0.00,,---,0.00,VWS V14.01,2013-01-03 21:01:00,
2013-01-03 16:04:00,19.4,-0.4,30.03,WNW,301,3.0,7.0,41,0.00,,---,0.00,VWS V14.01,2013-01-03 21:04:00,
2013-01-03 16:06:00,19.2,-0.6,30.03,WNW,294,3.0,7.0,41,0.00,,---,0.00,VWS V14.01,2013-01-03 21:06:00,
2013-01-03 16:07:00,19.1,-0.7,30.04,WNW,291,3.0,7.0,41,0.00,,---,0.00,VWS V14.01,2013-01-03 21:07:00,
2013-01-03 16:09:00,18.9,-0.9,30.04,WSW,242,4.0,7.0,41,0.00,,---,0.00,VWS V14.01,2013-01-03 21:09:00,
2013-01-03 16:11:00,18.8,-0.5,30.04,WNW,296,4.0,7.0,42,0.00,,---,0.00,VWS V14.01,2013-01-03 21:11:00,
2013-01-03 16:12:00,18.7,-0.6,30.04,NNW,329,4.0,8.0,42,0.00,,---,0.00,VWS V14.01,2013-01-03 21:12:00,
2013-01-03 16:15:00,18.5,-0.3,30.03,West,279,9.0,10.0,43,0.00,,---,0.00,VWS V14.01,2013-01-03 21:15:00,
2013-01-03 16:16:00,18.5,-0.3,30.03,NW,307,4.0,10.0,43,0.00,,---,0.00,VWS V14.01,2013-01-03 21:16:00,
2013-01-03 16:17:00,18.5,-0.3,30.03,NW,315,6.0,10.0,43,0.00,,---,0.00,VWS V14.01,2013-01-03 21:17:00,
2013-01-03 16:22:00,18.4,-0.3,30.03,NW,307,2.0,10.0,43,0.00,,---,0.00,VWS V14.01,2013-01-03 21:22:00,
2013-01-03 16:23:00,18.3,-0.4,30.03,WNW,301,5.0,10.0,43,0.00,,---,0.00,VWS V14.01,2013-01-03 21:23:00,
2013-01-03 16:27:00,18.2,0.0,30.03,NW,304,3.0,10.0,44,0.00,,---,0.00,VWS V14.01,2013-01-03 21:27:00,
2013-01-03 16:28:00,18.2,0.0,30.03,West,278,4.0,10.0,44,0.00,,---,0.00,VWS V14.01,2013-01-03 21:28:00,
2013-01-03 16:29:00,18.2,-0.5,30.03,WNW,291,3.0,10.0,43,0.00,,---,0.00,VWS V14.01,2013-01-03 21:29:00,
2013-01-03 16:33:00,18.1,-0.1,30.03,West,278,3.0,7.0,44,0.00,,---,0.00,VWS V14.01,2013-01-03 21:33:00,
2013-01-03 16:34:00,18.1,-0.1,30.03,SW,232,9.0,9.0,44,0.00,,---,0.00,VWS V14.01,2013-01-03 21:34:00,
2013-01-03 16:38:00,18.1,-0.1,30.03,WNW,303,8.0,9.0,44,0.00,,---,0.00,VWS V14.01,2013-01-03 21:38:00,
2013-01-03 16:39:00,18.1,-0.1,30.03,West,281,6.0,9.0,44,0.00,,---,0.00,VWS V14.01,2013-01-03 21:39:00,
2013-01-03 16:43:00,18.1,0.3,30.03,SW,236,4.0,9.0,45,0.00,,---,0.00,VWS V14.01,2013-01-03 21:43:00,
2013-01-03 16:44:00,18.1,0.3,30.03,WNW,283,3.0,9.0,45,0.00,,---,0.00,VWS V14.01,2013-01-03 21:44:00,
2013-01-03 16:45:00,18.1,0.3,30.03,SW,233,4.0,9.0,45,0.00,,---,0.00,VWS V14.01,2013-01-03 21:45:00,
2013-01-03 16:49:00,18.1,0.8,30.03,WNW,283,2.0,9.0,46,0.00,,---,0.00,VWS V14.01,2013-01-03 21:49:00,
2013-01-03 16:50:00,18.1,0.3,30.02,SW,235,1.0,9.0,45,0.00,,---,0.00,VWS V14.01,2013-01-03 21:50:00,
2013-01-03 16:54:00,18.0,0.7,30.03,SW,236,5.0,9.0,46,0.00,,---,0.00,VWS V14.01,2013-01-03 21:54:00,
2013-01-03 16:55:00,18.0,1.2,30.03,SW,233,5.0,9.0,47,0.00,,---,0.00,VWS V14.01,2013-01-03 21:55:00,
2013-01-03 16:56:00,18.0,0.7,30.02,WSW,242,7.0,9.0,46,0.00,,---,0.00,VWS V14.01,2013-01-03 21:56:00,
2013-01-03 17:00:00,17.9,0.6,30.03,West,266,3.0,9.0,46,0.00,,---,0.00,VWS V14.01,2013-01-03 22:00:00,
2013-01-03 17:01:00,17.8,1.0,30.03,NW,309,5.0,9.0,47,0.00,,---,0.00,VWS V14.01,2013-01-03 22:01:00,
2013-01-03 17:02:00,17.8,0.5,30.03,WSW,245,5.0,9.0,46,0.00,,---,0.00,VWS V14.01,2013-01-03 22:02:00,
2013-01-03 17:05:00,17.8,1.0,30.04,WNW,283,0.0,9.0,47,0.00,,---,0.00,VWS V14.01,2013-01-03 22:05:00,
2013-01-03 17:06:00,17.7,1.4,30.04,West,269,2.0,9.0,48,0.00,,---,0.00,VWS V14.01,2013-01-03 22:06:00,
2013-01-03 17:07:00,17.7,1.4,30.04,South,191,1.0,9.0,48,0.00,,---,0.00,VWS V14.01,2013-01-03 22:07:00,
2013-01-03 17:08:00,17.6,1.3,30.04,WNW,283,1.0,9.0,48,0.00,,---,0.00,VWS V14.01,2013-01-03 22:08:00,
2013-01-03 17:10:00,17.7,2.2,30.04,West,271,8.0,10.0,50,0.00,,---,0.00,VWS V14.01,2013-01-03 22:10:00,
2013-01-03 17:11:00,17.7,1.8,30.04,SW,222,6.0,10.0,49,0.00,,---,0.00,VWS V14.01,2013-01-03 22:11:00,
2013-01-03 17:12:00,17.7,1.8,30.04,WNW,288,5.0,10.0,49,0.00,,---,0.00,VWS V14.01,2013-01-03 22:12:00,
2013-01-03 17:13:00,17.7,2.2,30.04,WNW,291,4.0,10.0,50,0.00,,---,0.00,VWS V14.01,2013-01-03 22:13:00,
2013-01-03 17:15:00,17.7,2.2,30.04,West,276,3.0,10.0,50,0.00,,---,0.00,VWS V14.01,2013-01-03 22:15:00,
2013-01-03 17:17:00,17.8,2.3,30.04,West,267,5.0,10.0,50,0.00,,---,0.00,VWS V14.01,2013-01-03 22:17:00,
2013-01-03 17:18:00,17.7,2.2,30.04,West,260,2.0,10.0,50,0.00,,---,0.00,VWS V14.01,2013-01-03 22:18:00,
2013-01-03 17:20:00,17.7,2.2,30.04,WNW,285,4.0,10.0,50,0.00,,---,0.00,VWS V14.01,2013-01-03 22:20:00,
2013-01-03 17:22:00,17.7,2.2,30.04,WNW,296,4.0,10.0,50,0.00,,---,0.00,VWS V14.01,2013-01-03 22:22:00,
2013-01-03 17:24:00,17.7,2.7,30.05,West,274,3.0,10.0,51,0.00,,---,0.00,VWS V14.01,2013-01-03 22:24:00,
2013-01-03 17:25:00,17.7,2.2,30.05,NW,307,3.0,10.0,50,0.00,,---,0.00,VWS V14.01,2013-01-03 22:25:00,
2013-01-03 17:27:00,17.7,2.7,30.05,SSW,205,4.0,10.0,51,0.00,,---,0.00,VWS V14.01,2013-01-03 22:27:00,
2013-01-03 17:29:00,17.7,2.7,30.05,SE,125,0.0,10.0,51,0.00,,---,0.00,VWS V14.01,2013-01-03 22:29:00,
2013-01-03 17:30:00,17.6,3.0,30.05,ESE,109,1.0,1.0,52,0.00,,---,0.00,VWS V14.01,2013-01-03 22:30:00,
2013-01-03 17:32:00,17.5,2.9,30.05,West,270,3.0,5.0,52,0.00,,---,0.00,VWS V14.01,2013-01-03 22:32:00,
2013-01-03 17:33:00,17.5,2.9,30.05,SW,229,2.0,5.0,52,0.00,,---,0.00,VWS V14.01,2013-01-03 22:33:00,
2013-01-03 17:34:00,17.5,2.9,30.05,West,269,10.0,10.0,52,0.00,,---,0.00,VWS V14.01,2013-01-03 22:34:00,
2013-01-03 17:37:00,17.5,3.3,30.05,SW,229,4.0,10.0,53,0.00,,---,0.00,VWS V14.01,2013-01-03 22:37:00,
2013-01-03 17:38:00,17.5,3.7,30.05,WSW,249,3.0,10.0,54,0.00,,---,0.00,VWS V14.01,2013-01-03 22:38:00,
2013-01-03 17:39:00,17.5,3.3,30.05,West,263,5.0,10.0,53,0.00,,---,0.00,VWS V14.01,2013-01-03 22:39:00,
2013-01-03 17:42:00,17.5,3.7,30.05,West,260,3.0,10.0,54,0.00,,---,0.00,VWS V14.01,2013-01-03 22:42:00,
2013-01-03 17:43:00,17.5,3.7,30.05,WSW,242,4.0,10.0,54,0.00,,---,0.00,VWS V14.01,2013-01-03 22:43:00,
2013-01-03 17:44:00,17.4,3.6,30.05,West,269,3.0,10.0,54,0.00,,---,0.00,VWS V14.01,2013-01-03 22:44:00,
2013-01-03 17:48:00,17.4,3.6,30.05,WSW,252,3.0,10.0,54,0.00,,---,0.00,VWS V14.01,2013-01-03 22:48:00,
2013-01-03 17:49:00,17.3,3.5,30.05,West,273,2.0,10.0,54,0.00,,---,0.00,VWS V14.01,2013-01-03 22:49:00,
2013-01-03 17:50:00,17.3,3.5,30.05,West,269,4.0,10.0,54,0.00,,---,0.00,VWS V14.01,2013-01-03 22:50:00,
2013-01-03 17:51:00,17.3,3.5,30.05,SW,222,2.0,10.0,54,0.00,,---,0.00,VWS V14.01,2013-01-03 22:51:00,
2013-01-03 17:53:00,17.2,3.8,30.05,WSW,249,6.0,10.0,55,0.00,,---,0.00,VWS V14.01,2013-01-03 22:53:00,
2013-01-03 17:55:00,17.2,3.8,30.05,NW,304,2.0,10.0,55,0.00,,---,0.00,VWS V14.01,2013-01-03 22:55:00,
2013-01-03 17:56:00,17.2,3.8,30.05,SW,224,4.0,10.0,55,0.00,,---,0.00,VWS V14.01,2013-01-03 22:56:00,
2013-01-03 17:59:00,17.1,4.1,30.05,WSW,256,5.0,10.0,56,0.00,,---,0.00,VWS V14.01,2013-01-03 22:59:00,
2013-01-03 18:00:00,17.1,3.7,30.05,WSW,255,5.0,6.0,55,0.00,,---,0.00,VWS V14.01,2013-01-03 23:00:00,
2013-01-03 18:01:00,17.1,4.1,30.05,West,262,6.0,6.0,56,0.00,,---,0.00,VWS V14.01,2013-01-03 23:01:00,
2013-01-03 18:04:00,17.0,3.6,30.05,WSW,257,5.0,7.0,55,0.00,,---,0.00,VWS V14.01,2013-01-03 23:04:00,
2013-01-03 18:05:00,17.0,4.0,30.05,WSW,250,6.0,7.0,56,0.00,,---,0.00,VWS V14.01,2013-01-03 23:05:00,
2013-01-03 18:06:00,17.0,4.0,30.05,SW,231,5.0,7.0,56,0.00,,---,0.00,VWS V14.01,2013-01-03 23:06:00,
2013-01-03 18:10:00,16.9,3.5,30.05,West,276,3.0,11.0,55,0.00,,---,0.00,VWS V14.01,2013-01-03 23:10:00,
2013-01-03 18:11:00,16.9,3.5,30.05,WSW,249,6.0,11.0,55,0.00,,---,0.00,VWS V14.01,2013-01-03 23:11:00,
2013-01-03 18:12:00,16.9,3.9,30.05,WSW,242,6.0,11.0,56,0.00,,---,0.00,VWS V14.01,2013-01-03 23:12:00,
2013-01-03 18:16:00,17.0,4.4,30.05,SSW,211,6.0,11.0,57,0.00,,---,0.00,VWS V14.01,2013-01-03 23:16:00,
2013-01-03 18:17:00,16.9,4.7,30.05,WSW,239,7.0,11.0,58,0.00,,---,0.00,VWS V14.01,2013-01-03 23:17:00,
2013-01-03 18:21:00,16.9,3.9,30.05,NW,304,1.0,11.0,56,0.00,,---,0.00,VWS V14.01,2013-01-03 23:21:00,
2013-01-03 18:22:00,16.9,4.3,30.05,WNW,284,9.0,11.0,57,0.00,,---,0.00,VWS V14.01,2013-01-03 23:22:00,
2013-01-03 18:23:00,16.8,3.8,30.05,WSW,258,7.0,11.0,56,0.00,,---,0.00,VWS V14.01,2013-01-03 23:23:00,
2013-01-03 18:26:00,16.8,4.2,30.05,West,273,7.0,11.0,57,0.00,,---,0.00,VWS V14.01,2013-01-03 23:26:00,
2013-01-03 18:27:00,16.8,4.2,30.05,West,271,6.0,11.0,57,0.00,,---,0.00,VWS V14.01,2013-01-03 23:27:00,
2013-01-03 18:28:00,16.7,4.1,30.05,WNW,296,4.0,11.0,57,0.00,,---,0.00,VWS V14.01,2013-01-03 23:28:00,
2013-01-03 18:29:00,16.7,4.1,30.05,WSW,240,8.0,11.0,57,0.00,,---,0.00,VWS V14.01,2013-01-03 23:29:00,
2013-01-03 18:32:00,16.8,4.2,30.05,West,272,9.0,10.0,57,0.00,,---,0.00,VWS V14.01,2013-01-03 23:32:00,
2013-01-03 18:33:00,16.8,3.8,30.05,SW,236,6.0,10.0,56,0.00,,---,0.00,VWS V14.01,2013-01-03 23:33:00,
2013-01-03 18:34:00,16.8,3.8,30.05,WSW,243,9.0,10.0,56,0.00,,---,0.00,VWS V14.01,2013-01-03 23:34:00,
2013-01-03 18:35:00,16.8,3.8,30.05,West,274,6.0,10.0,56,0.00,,---,0.00,VWS V14.01,2013-01-03 23:35:00,
2013-01-03 18:37:00,16.7,3.7,30.05,WSW,245,9.0,12.0,56,0.00,,---,0.00,VWS V14.01,2013-01-03 23:37:00,
2013-01-03 18:39:00,16.8,3.8,30.05,West,265,8.0,12.0,56,0.00,,---,0.00,VWS V14.01,2013-01-03 23:39:00,
2013-01-03 18:40:00,16.8,3.8,30.05,WSW,249,5.0,12.0,56,0.00,,---,0.00,VWS V14.01,2013-01-03 23:40:00,
2013-01-03 18:44:00,16.7,4.1,30.06,WNW,284,6.0,12.0,57,0.00,,---,0.00,VWS V14.01,2013-01-03 23:44:00,
2013-01-03 18:45:00,16.7,4.1,30.06,West,261,7.0,12.0,57,0.00,,---,0.00,VWS V14.01,2013-01-03 23:45:00,
2013-01-03 18:48:00,16.7,4.1,30.06,SW,236,8.0,12.0,57,0.00,,---,0.00,VWS V14.01,2013-01-03 23:48:00,
2013-01-03 18:49:00,16.8,4.2,30.06,WSW,257,5.0,12.0,57,0.00,,---,0.00,VWS V14.01,2013-01-03 23:49:00,
2013-01-03 18:50:00,16.8,3.8,30.06,West,261,10.0,13.0,56,0.00,,---,0.00,VWS V14.01,2013-01-03 23:50:00,
2013-01-03 18:51:00,16.8,3.8,30.06,West,271,7.0,13.0,56,0.00,,---,0.00,VWS V14.01,2013-01-03 23:51:00,
2013-01-03 18:53:00,16.8,4.2,30.06,WNW,291,8.0,13.0,57,0.00,,---,0.00,VWS V14.01,2013-01-03 23:53:00,
2013-01-03 18:55:00,16.8,4.2,30.06,West,274,4.0,13.0,57,0.00,,---,0.00,VWS V14.01,2013-01-03 23:55:00,
2013-01-03 18:56:00,16.7,4.1,30.06,West,266,3.0,13.0,57,0.00,,---,0.00,VWS V14.01,2013-01-03 23:56:00,
2013-01-03 18:58:00,16.7,4.1,30.06,WSW,249,8.0,13.0,57,0.00,,---,0.00,VWS V14.01,2013-01-03 23:58:00,
2013-01-03 19:00:00,16.7,4.1,30.06,West,264,6.0,7.0,57,0.00,,---,0.00,VWS V14.01,2013-01-04 00:00:00,
2013-01-03 19:02:00,16.7,4.1,30.06,SW,222,3.0,11.0,57,0.00,,---,0.00,VWS V14.01,2013-01-04 00:02:00,
2013-01-03 19:04:00,16.6,3.7,30.07,SW,232,8.0,11.0,56,0.00,,---,0.00,VWS V14.01,2013-01-04 00:04:00,
2013-01-03 19:05:00,16.6,4.0,30.06,West,259,8.0,11.0,57,0.00,,---,0.00,VWS V14.01,2013-01-04 00:05:00,
2013-01-03 19:06:00,16.6,4.0,30.06,SW,233,6.0,11.0,57,0.00,,---,0.00,VWS V14.01,2013-01-04 00:06:00,
2013-01-03 19:07:00,16.6,4.4,30.07,NW,325,5.0,11.0,58,0.00,,---,0.00,VWS V14.01,2013-01-04 00:07:00,
2013-01-03 19:10:00,16.6,4.0,30.07,West,264,7.0,14.0,57,0.00,,---,0.00,VWS V14.01,2013-01-04 00:10:00,
2013-01-03 19:11:00,16.6,3.7,30.07,WSW,257,5.0,14.0,56,0.00,,---,0.00,VWS V14.01,2013-01-04 00:11:00,
2013-01-03 19:13:00,16.6,4.4,30.07,West,280,2.0,14.0,58,0.00,,---,0.00,VWS V14.01,2013-01-04 00:13:00,
2013-01-03 19:15:00,16.4,4.2,30.07,WSW,255,7.0,14.0,58,0.00,,---,0.00,VWS V14.01,2013-01-04 00:15:00,
2013-01-03 19:16:00,16.4,4.2,30.07,West,279,7.0,14.0,58,0.00,,---,0.00,VWS V14.01,2013-01-04 00:16:00,
2013-01-03 19:18:00,16.4,3.8,30.07,West,267,5.0,14.0,57,0.00,,---,0.00,VWS V14.01,2013-01-04 00:18:00,
2013-01-03 19:21:00,16.3,4.1,30.07,West,260,8.0,14.0,58,0.00,,---,0.00,VWS V14.01,2013-01-04 00:21:00,
2013-01-03 19:23:00,16.4,4.2,30.06,WNW,285,4.0,14.0,58,0.00,,---,0.00,VWS V14.01,2013-01-04 00:23:00,
2013-01-03 19:25:00,16.3,4.1,30.06,WSW,246,4.0,14.0,58,0.00,,---,0.00,VWS V14.01,2013-01-04 00:25:00,
2013-01-03 19:26:00,16.3,4.1,30.06,WSW,255,4.0,14.0,58,0.00,,---,0.00,VWS V14.01,2013-01-04 00:26:00,
2013-01-03 19:27:00,16.3,4.1,30.06,WNW,294,3.0,14.0,58,0.00,,---,0.00,VWS V14.01,2013-01-04 00:27:00,
2013-01-03 19:28:00,16.3,4.5,30.06,WNW,298,2.0,14.0,59,0.00,,---,0.00,VWS V14.01,2013-01-04 00:28:00,
2013-01-03 19:30:00,16.3,4.5,30.06,NW,321,2.0,14.0,59,0.00,,---,0.00,VWS V14.01,2013-01-04 00:30:00,
2013-01-03 19:31:00,16.2,4.4,30.06,West,269,2.0,3.0,59,0.00,,---,0.00,VWS V14.01,2013-01-04 00:31:00,
2013-01-03 19:32:00,16.2,4.4,30.06,WNW,288,2.0,3.0,59,0.00,,---,0.00,VWS V14.01,2013-01-04 00:32:00,
2013-01-03 19:33:00,16.2,4.4,30.06,West,262,3.0,3.0,59,0.00,,---,0.00,VWS V14.01,2013-01-04 00:33:00,
2013-01-03 19:35:00,16.2,5.1,30.06,SW,221,3.0,3.0,61,0.00,,---,0.00,VWS V14.01,2013-01-04 00:35:00,
2013-01-03 19:36:00,16.2,5.1,30.06,WSW,242,4.0,5.0,61,0.00,,---,0.00,VWS V14.01,2013-01-04 00:36:00,
2013-01-03 19:38:00,16.2,4.8,30.06,West,263,4.0,5.0,60,0.00,,---,0.00,VWS V14.01,2013-01-04 00:38:00,
2013-01-03 19:39:00,16.2,5.1,30.06,WSW,248,6.0,6.0,61,0.00,,---,0.00,VWS V14.01,2013-01-04 00:39:00,
2013-01-03 19:40:00,16.2,5.5,30.06,WSW,255,3.0,6.0,62,0.00,,---,0.00,VWS V14.01,2013-01-04 00:40:00,
2013-01-03 19:42:00,16.3,5.6,30.06,WSW,257,3.0,6.0,62,0.00,,---,0.00,VWS V14.01,2013-01-04 00:42:00,
2013-01-03 19:43:00,16.2,5.1,30.06,WSW,255,6.0,7.0,61,0.00,,---,0.00,VWS V14.01,2013-01-04 00:43:00,
2013-01-03 19:44:00,16.3,5.2,30.06,West,280,6.0,7.0,61,0.00,,---,0.00,VWS V14.01,2013-01-04 00:44:00,
2013-01-03 19:45:00,16.3,5.2,30.06,SE,145,4.0,8.0,61,0.00,,---,0.00,VWS V14.01,2013-01-04 00:45:00,
2013-01-03 19:47:00,16.3,5.6,30.06,West,271,4.0,8.0,62,0.00,,---,0.00,VWS V14.01,2013-01-04 00:47:00,
2013-01-03 19:49:00,16.3,5.2,30.06,WSW,249,3.0,8.0,61,0.00,,---,0.00,VWS V14.01,2013-01-04 00:49:00,
2013-01-03 19:50:00,16.3,5.2,30.06,WSW,255,2.0,8.0,61,0.00,,---,0.00,VWS V14.01,2013-01-04 00:50:00,
2013-01-03 19:53:00,16.2,5.1,30.06,WNW,288,3.0,8.0,61,0.00,,---,0.00,VWS V14.01,2013-01-04 00:53:00,
2013-01-03 19:54:00,16.2,5.1,30.06,West,271,1.0,8.0,61,0.00,,---,0.00,VWS V14.01,2013-01-04 00:54:00,
2013-01-03 19:55:00,16.2,5.1,30.06,West,259,2.0,8.0,61,0.00,,---,0.00,VWS V14.01,2013-01-04 00:55:00,
2013-01-03 19:56:00,16.2,5.1,30.06,WSW,252,1.0,8.0,61,0.00,,---,0.00,VWS V14.01,2013-01-04 00:56:00,
2013-01-03 19:58:00,16.0,5.3,30.06,West,267,4.0,8.0,62,0.00,,---,0.00,VWS V14.01,2013-01-04 00:58:00,
2013-01-03 20:00:00,16.0,5.3,30.06,SW,233,5.0,8.0,62,0.00,,---,0.00,VWS V14.01,2013-01-04 01:00:00,
2013-01-03 20:01:00,16.1,5.7,30.06,West,273,3.0,7.0,63,0.00,,---,0.00,VWS V14.01,2013-01-04 01:01:00,
2013-01-03 20:04:00,16.1,5.7,30.06,West,274,3.0,7.0,63,0.00,,---,0.00,VWS V14.01,2013-01-04 01:04:00,
2013-01-03 20:05:00,16.1,6.1,30.06,WSW,239,5.0,7.0,64,0.00,,---,0.00,VWS V14.01,2013-01-04 01:05:00,
2013-01-03 20:07:00,16.1,5.7,30.06,WSW,256,4.0,7.0,63,0.00,,---,0.00,VWS V14.01,2013-01-04 01:07:00,
2013-01-03 20:09:00,16.2,5.8,30.05,West,280,3.0,7.0,63,0.00,,---,0.00,VWS V14.01,2013-01-04 01:09:00,
2013-01-03 20:10:00,16.2,5.8,30.05,WSW,252,4.0,7.0,63,0.00,,---,0.00,VWS V14.01,2013-01-04 01:10:00,
2013-01-03 20:12:00,16.2,5.8,30.05,WSW,239,6.0,7.0,63,0.00,,---,0.00,VWS V14.01,2013-01-04 01:12:00,
2013-01-03 20:14:00,16.2,6.2,30.05,West,269,3.0,7.0,64,0.00,,---,0.00,VWS V14.01,2013-01-04 01:14:00,
2013-01-03 20:16:00,16.2,6.2,30.05,SW,231,6.0,7.0,64,0.00,,---,0.00,VWS V14.01,2013-01-04 01:16:00,
2013-01-03 20:17:00,16.3,6.3,30.05,West,267,3.0,7.0,64,0.00,,---,0.00,VWS V14.01,2013-01-04 01:17:00,
2013-01-03 20:20:00,16.3,5.9,30.05,WNW,285,1.0,7.0,63,0.00,,---,0.00,VWS V14.01,2013-01-04 01:20:00,
2013-01-03 20:22:00,16.3,6.3,30.05,West,278,5.0,7.0,64,0.00,,---,0.00,VWS V14.01,2013-01-04 01:22:00,
2013-01-03 20:23:00,16.3,6.3,30.05,WSW,246,5.0,7.0,64,0.00,,---,0.00,VWS V14.01,2013-01-04 01:23:00,
2013-01-03 20:26:00,16.4,6.7,30.06,WSW,252,1.0,7.0,65,0.00,,---,0.00,VWS V14.01,2013-01-04 01:26:00,
2013-01-03 20:28:00,16.3,6.3,30.06,West,266,3.0,7.0,64,0.00,,---,0.00,VWS V14.01,2013-01-04 01:28:00,
2013-01-03 20:32:00,16.3,6.3,30.06,WSW,257,3.0,4.0,64,0.00,,---,0.00,VWS V14.01,2013-01-04 01:32:00,
2013-01-03 20:33:00,16.3,6.3,30.06,WSW,252,4.0,5.0,64,0.00,,---,0.00,VWS V14.01,2013-01-04 01:33:00,
2013-01-03 20:37:00,16.2,6.2,30.06,WNW,291,2.0,5.0,64,0.00,,---,0.00,VWS V14.01,2013-01-04 01:37:00,
2013-01-03 20:38:00,16.2,6.2,30.06,SE,136,1.0,5.0,64,0.00,,---,0.00,VWS V14.01,2013-01-04 01:38:00,
2013-01-03 20:39:00,16.2,6.5,30.06,WSW,257,1.0,5.0,65,0.00,,---,0.00,VWS V14.01,2013-01-04 01:39:00,
2013-01-03 20:40:00,16.2,6.5,30.06,WSW,242,3.0,5.0,65,0.00,,---,0.00,VWS V14.01,2013-01-04 01:40:00,
2013-01-03 20:42:00,16.2,6.8,30.06,WSW,248,3.0,7.0,66,0.00,,---,0.00,VWS V14.01,2013-01-04 01:42:00,
2013-01-03 20:43:00,16.2,6.8,30.06,SW,236,4.0,7.0,66,0.00,,---,0.00,VWS V14.01,2013-01-04 01:43:00,
2013-01-03 20:44:00,16.2,6.8,30.06,NW,304,2.0,7.0,66,0.00,,---,0.00,VWS V14.01,2013-01-04 01:44:00,
2013-01-03 20:45:00,16.2,6.8,30.05,SW,231,2.0,7.0,66,0.00,,---,0.00,VWS V14.01,2013-01-04 01:45:00,
2013-01-03 20:48:00,16.3,6.9,30.05,WNW,294,2.0,7.0,66,0.00,,---,0.00,VWS V14.01,2013-01-04 01:48:00,
2013-01-03 20:49:00,16.3,6.9,30.05,WSW,246,4.0,7.0,66,0.00,,---,0.00,VWS V14.01,2013-01-04 01:49:00,
2013-01-03 20:51:00,16.3,6.9,30.05,WNW,298,2.0,7.0,66,0.00,,---,0.00,VWS V14.01,2013-01-04 01:51:00,
2013-01-03 20:53:00,16.3,6.9,30.05,West,260,3.0,7.0,66,0.00,,---,0.00,VWS V14.01,2013-01-04 01:53:00,
2013-01-03 20:54:00,16.3,6.9,30.05,WNW,291,1.0,7.0,66,0.00,,---,0.00,VWS V14.01,2013-01-04 01:54:00,
2013-01-03 20:56:00,16.3,6.6,30.05,West,281,2.0,7.0,65,0.00,,---,0.00,VWS V14.01,2013-01-04 01:56:00,
2013-01-03 20:58:00,16.3,6.3,30.05,West,276,2.0,7.0,64,0.00,,---,0.00,VWS V14.01,2013-01-04 01:58:00,
2013-01-03 20:59:00,16.3,6.3,30.05,West,277,3.0,7.0,64,0.00,,---,0.00,VWS V14.01,2013-01-04 01:59:00,
2013-01-03 21:00:00,16.3,6.3,30.05,West,273,3.0,3.0,64,0.00,,---,0.00,VWS V14.01,2013-01-04 02:00:00,
2013-01-03 21:02:00,16.3,6.3,30.05,West,263,1.0,3.0,64,0.00,,---,0.00,VWS V14.01,2013-01-04 02:02:00,
2013-01-03 21:04:00,16.3,6.3,30.04,WNW,291,1.0,3.0,64,0.00,,---,0.00,VWS V14.01,2013-01-04 02:04:00,
2013-01-03 21:05:00,16.3,6.3,30.04,WNW,291,0.0,3.0,64,0.00,,---,0.00,VWS V14.01,2013-01-04 02:05:00,
2013-01-03 21:07:00,16.2,6.2,30.05,WSW,257,1.0,3.0,64,0.00,,---,0.00,VWS V14.01,2013-01-04 02:07:00,
2013-01-03 21:10:00,16.1,6.1,30.05,West,266,1.0,3.0,64,0.00,,---,0.00,VWS V14.01,2013-01-04 02:10:00,
2013-01-03 21:11:00,16.0,6.0,30.05,West,267,1.0,3.0,64,0.00,,---,0.00,VWS V14.01,2013-01-04 02:11:00,
2013-01-03 21:13:00,16.0,6.0,30.05,West,269,1.0,3.0,64,0.00,,---,0.00,VWS V14.01,2013-01-04 02:13:00,
2013-01-03 21:15:00,16.0,6.3,30.05,West,266,2.0,4.0,65,0.00,,---,0.00,VWS V14.01,2013-01-04 02:15:00,
2013-01-03 21:17:00,15.9,6.2,30.05,WSW,255,3.0,4.0,65,0.00,,---,0.00,VWS V14.01,2013-01-04 02:17:00,
2013-01-03 21:18:00,15.9,6.2,30.05,WSW,255,4.0,4.0,65,0.00,,---,0.00,VWS V14.01,2013-01-04 02:18:00,
2013-01-03 21:19:00,15.9,6.2,30.05,WSW,251,2.0,5.0,65,0.00,,---,0.00,VWS V14.01,2013-01-04 02:19:00,
2013-01-03 21:20:00,16.0,6.3,30.05,West,279,3.0,7.0,65,0.00,,---,0.00,VWS V14.01,2013-01-04 02:20:00,
2013-01-03 21:22:00,16.0,6.3,30.05,West,281,2.0,7.0,65,0.00,,---,0.00,VWS V14.01,2013-01-04 02:22:00,
2013-01-03 21:23:00,16.0,6.3,30.05,WNW,293,3.0,7.0,65,0.00,,---,0.00,VWS V14.01,2013-01-04 02:23:00,
2013-01-03 21:24:00,16.0,6.3,30.05,WNW,294,2.0,7.0,65,0.00,,---,0.00,VWS V14.01,2013-01-04 02:24:00,
2013-01-03 21:26:00,16.1,6.4,30.05,West,279,5.0,7.0,65,0.00,,---,0.00,VWS V14.01,2013-01-04 02:26:00,
2013-01-03 21:28:00,16.2,6.2,30.05,West,273,2.0,7.0,64,0.00,,---,0.00,VWS V14.01,2013-01-04 02:28:00,
2013-01-03 21:29:00,16.2,6.2,30.05,WSW,255,1.0,7.0,64,0.00,,---,0.00,VWS V14.01,2013-01-04 02:29:00,
2013-01-03 21:30:00,16.2,6.2,30.05,West,281,2.0,2.0,64,0.00,,---,0.00,VWS V14.01,2013-01-04 02:30:00,
2013-01-03 21:31:00,16.2,6.2,30.05,WNW,288,1.0,2.0,64,0.00,,---,0.00,VWS V14.01,2013-01-04 02:31:00,
2013-01-03 21:33:00,16.2,6.2,30.05,West,281,0.0,2.0,64,0.00,,---,0.00,VWS V14.01,2013-01-04 02:33:00,
2013-01-03 21:34:00,16.2,6.2,30.05,West,281,0.0,2.0,64,0.00,,---,0.00,VWS V14.01,2013-01-04 02:34:00,
2013-01-03 21:36:00,16.1,6.1,30.05,NW,319,1.0,3.0,64,0.00,,---,0.00,VWS V14.01,2013-01-04 02:36:00,
2013-01-03 21:39:00,16.0,6.0,30.05,NW,319,0.0,3.0,64,0.00,,---,0.00,VWS V14.01,2013-01-04 02:39:00,
2013-01-03 21:41:00,16.0,6.0,30.05,WNW,284,1.0,3.0,64,0.00,,---,0.00,VWS V14.01,2013-01-04 02:41:00,
2013-01-03 21:42:00,15.9,5.9,30.05,WNW,284,1.0,3.0,64,0.00,,---,0.00,VWS V14.01,2013-01-04 02:42:00,
2013-01-03 21:44:00,15.9,5.9,30.05,West,267,0.0,3.0,64,0.00,,---,0.00,VWS V14.01,2013-01-04 02:44:00,
2013-01-03 21:47:00,15.9,5.9,30.05,West,274,0.0,3.0,64,0.00,,---,0.00,VWS V14.01,2013-01-04 02:47:00,
2013-01-03 21:50:00,15.8,5.8,30.04,West,271,1.0,3.0,64,0.00,,---,0.00,VWS V14.01,2013-01-04 02:50:00,
2013-01-03 21:51:00,15.8,5.8,30.04,WNW,288,2.0,3.0,64,0.00,,---,0.00,VWS V14.01,2013-01-04 02:51:00,
2013-01-03 21:52:00,15.8,5.8,30.04,West,264,1.0,3.0,64,0.00,,---,0.00,VWS V14.01,2013-01-04 02:52:00,
2013-01-03 21:56:00,15.8,5.8,30.04,WSW,249,1.0,3.0,64,0.00,,---,0.00,VWS V14.01,2013-01-04 02:56:00,
2013-01-03 21:57:00,15.8,5.4,30.04,WSW,255,1.0,3.0,63,0.00,,---,0.00,VWS V14.01,2013-01-04 02:57:00,
2013-01-03 22:01:00,15.7,5.4,30.04,WNW,295,1.0,2.0,63,0.00,,---,0.00,VWS V14.01,2013-01-04 03:01:00,
2013-01-03 22:02:00,15.7,5.4,30.04,WNW,289,1.0,2.0,63,0.00,,---,0.00,VWS V14.01,2013-01-04 03:02:00,
2013-01-03 22:03:00,15.7,5.4,30.04,West,264,1.0,2.0,63,0.00,,---,0.00,VWS V14.01,2013-01-04 03:03:00,
2013-01-03 22:07:00,15.7,5.0,30.04,WNW,294,1.0,2.0,62,0.00,,---,0.00,VWS V14.01,2013-01-04 03:07:00,
2013-01-03 22:08:00,15.8,5.1,30.04,NW,313,2.0,2.0,62,0.00,,---,0.00,VWS V14.01,2013-01-04 03:08:00,
2013-01-03 22:12:00,15.7,4.7,30.04,West,280,2.0,4.0,61,0.00,,---,0.00,VWS V14.01,2013-01-04 03:12:00,
2013-01-03 22:13:00,15.7,4.3,30.04,NNW,335,2.0,4.0,60,0.00,,---,0.00,VWS V14.01,2013-01-04 03:13:00,
2013-01-03 22:14:00,15.7,4.3,30.04,West,269,3.0,4.0,60,0.00,,---,0.00,VWS V14.01,2013-01-04 03:14:00,
2013-01-03 22:17:00,15.7,4.3,30.04,NNW,328,2.0,4.0,60,0.00,,---,0.00,VWS V14.01,2013-01-04 03:17:00,
2013-01-03 22:19:00,15.6,4.2,30.04,NW,319,3.0,4.0,60,0.00,,---,0.00,VWS V14.01,2013-01-04 03:19:00,
2013-01-03 22:20:00,15.6,4.2,30.04,WNW,303,1.0,4.0,60,0.00,,---,0.00,VWS V14.01,2013-01-04 03:20:00,
2013-01-03 22:22:00,15.4,4.4,30.04,NNW,328,2.0,5.0,61,0.00,,---,0.00,VWS V14.01,2013-01-04 03:22:00,
2013-01-03 22:25:00,15.2,4.2,30.04,NW,326,1.0,5.0,61,0.00,,---,0.00,VWS V14.01,2013-01-04 03:25:00,
2013-01-03 22:28:00,14.9,4.6,30.04,North,349,2.0,5.0,63,0.00,,---,0.00,VWS V14.01,2013-01-04 03:28:00,
2013-01-03 22:30:00,14.8,4.5,30.04,NNW,336,2.0,3.0,63,0.00,,---,0.00,VWS V14.01,2013-01-04 03:30:00,
2013-01-03 22:31:00,14.7,4.8,30.04,NNW,343,1.0,3.0,64,0.00,,---,0.00,VWS V14.01,2013-01-04 03:31:00,
2013-01-03 22:33:00,14.6,4.7,30.04,NNW,344,2.0,4.0,64,0.00,,---,0.00,VWS V14.01,2013-01-04 03:33:00,
2013-01-03 22:36:00,14.1,4.5,30.04,North,350,3.0,5.0,65,0.00,,---,0.00,VWS V14.01,2013-01-04 03:36:00,
2013-01-03 22:37:00,13.8,4.2,30.04,NNE,18,4.0,5.0,65,0.00,,---,0.00,VWS V14.01,2013-01-04 03:37:00,
2013-01-03 22:39:00,12.8,3.9,30.04,North,8,2.0,5.0,67,0.00,,---,0.00,VWS V14.01,2013-01-04 03:39:00,
2013-01-03 22:41:00,12.3,4.1,30.04,NNE,28,2.0,5.0,69,0.00,,---,0.00,VWS V14.01,2013-01-04 03:41:00,
2013-01-03 22:42:00,12.0,3.8,30.03,NNE,28,1.0,5.0,69,0.00,,---,0.00,VWS V14.01,2013-01-04 03:42:00,
2013-01-03 22:44:00,11.6,4.0,30.03,NNE,29,2.0,5.0,71,0.00,,---,0.00,VWS V14.01,2013-01-04 03:44:00,
2013-01-03 22:47:00,11.4,4.4,30.03,NE,37,1.0,5.0,73,0.00,,---,0.00,VWS V14.01,2013-01-04 03:47:00,
2013-01-03 22:48:00,11.3,4.3,30.03,ENE,60,2.0,5.0,73,0.00,,---,0.00,VWS V14.01,2013-01-04 03:48:00,
2013-01-03 22:50:00,11.3,4.3,30.03,NE,53,2.0,5.0,73,0.00,,---,0.00,VWS V14.01,2013-01-04 03:50:00,
2013-01-03 22:53:00,11.5,4.5,30.03,North,357,2.0,5.0,73,0.00,,---,0.00,VWS V14.01,2013-01-04 03:53:00,
2013-01-03 22:56:00,11.7,4.7,30.03,NE,35,1.0,5.0,73,0.00,,---,0.00,VWS V14.01,2013-01-04 03:56:00,
2013-01-03 22:58:00,11.8,4.5,30.03,NNE,26,2.0,5.0,72,0.00,,---,0.00,VWS V14.01,2013-01-04 03:58:00,
2013-01-03 23:00:00,11.7,4.4,30.03,North,355,3.0,3.0,72,0.00,,---,0.00,VWS V14.01,2013-01-04 04:00:00,
2013-01-03 23:01:00,11.7,4.4,30.03,North,352,4.0,4.0,72,0.00,,---,0.00,VWS V14.01,2013-01-04 04:01:00,
2013-01-03 23:03:00,11.5,4.2,30.03,North,357,4.0,4.0,72,0.00,,---,0.00,VWS V14.01,2013-01-04 04:03:00,
2013-01-03 23:05:00,11.4,4.4,30.03,North,358,3.0,4.0,73,0.00,,---,0.00,VWS V14.01,2013-01-04 04:05:00,
2013-01-03 23:06:00,11.2,4.2,30.03,North,359,4.0,4.0,73,0.00,,---,0.00,VWS V14.01,2013-01-04 04:06:00,
2013-01-03 23:07:00,11.0,4.1,30.02,North,9,4.0,4.0,73,0.00,,---,0.00,VWS V14.01,2013-01-04 04:07:00,
2013-01-03 23:08:00,10.9,4.2,30.02,North,10,3.0,4.0,74,0.00,,---,0.00,VWS V14.01,2013-01-04 04:08:00,
2013-01-03 23:10:00,10.7,4.1,30.02,NNW,347,4.0,4.0,74,0.00,,---,0.00,VWS V14.01,2013-01-04 04:10:00,
2013-01-03 23:11:00,10.6,4.2,30.02,North,8,3.0,4.0,75,0.00,,---,0.00,VWS V14.01,2013-01-04 04:11:00,
2013-01-03 23:14:00,10.4,4.1,30.02,NNE,14,2.0,4.0,75,0.00,,---,0.00,VWS V14.01,2013-01-04 04:14:00,
2013-01-03 23:17:00,10.4,4.3,30.02,NNE,13,3.0,4.0,76,0.00,,---,0.00,VWS V14.01,2013-01-04 04:17:00,
2013-01-03 23:18:00,10.3,4.2,30.02,NNE,16,2.0,4.0,76,0.00,,---,0.00,VWS V14.01,2013-01-04 04:18:00,
2013-01-03 23:19:00,10.3,4.2,30.02,NNE,13,1.0,4.0,76,0.00,,---,0.00,VWS V14.01,2013-01-04 04:19:00,
2013-01-03 23:21:00,10.4,4.3,30.02,North,11,2.0,4.0,76,0.00,,---,0.00,VWS V14.01,2013-01-04 04:21:00,
2013-01-03 23:23:00,10.3,4.2,30.02,North,6,2.0,4.0,76,0.00,,---,0.00,VWS V14.01,2013-01-04 04:23:00,
2013-01-03 23:26:00,9.9,3.9,30.02,ENE,69,1.0,4.0,76,0.00,,---,0.00,VWS V14.01,2013-01-04 04:26:00,
2013-01-03 23:28:00,9.8,3.8,30.01,NE,41,2.0,4.0,76,0.00,,---,0.00,VWS V14.01,2013-01-04 04:28:00,
2013-01-03 23:31:00,9.5,4.0,30.01,North,355,1.0,2.0,78,0.00,,---,0.00,VWS V14.01,2013-01-04 04:31:00,
2013-01-03 23:32:00,9.5,4.0,30.01,North,353,2.0,2.0,78,0.00,,---,0.00,VWS V14.01,2013-01-04 04:32:00,
2013-01-03 23:33:00,9.4,3.9,30.01,NNE,25,1.0,3.0,78,0.00,,---,0.00,VWS V14.01,2013-01-04 04:33:00,
2013-01-03 23:35:00,9.4,3.9,30.01,NNW,347,1.0,3.0,78,0.00,,---,0.00,VWS V14.01,2013-01-04 04:35:00,
2013-01-03 23:36:00,9.3,4.1,30.01,NNW,343,1.0,3.0,79,0.00,,---,0.00,VWS V14.01,2013-01-04 04:36:00,
2013-01-03 23:37:00,9.3,4.1,30.01,NNW,343,1.0,3.0,79,0.00,,---,0.00,VWS V14.01,2013-01-04 04:37:00,
2013-01-03 23:39:00,9.3,4.1,30.01,North,354,2.0,3.0,79,0.00,,---,0.00,VWS V14.01,2013-01-04 04:39:00,
2013-01-03 23:41:00,9.3,4.1,30.01,North,3,3.0,3.0,79,0.00,,---,0.00,VWS V14.01,2013-01-04 04:41:00,
2013-01-03 23:42:00,9.3,4.1,30.01,North,359,3.0,3.0,79,0.00,,---,0.00,VWS V14.01,2013-01-04 04:42:00,
2013-01-03 23:45:00,9.4,4.2,30.01,North,352,3.0,3.0,79,0.00,,---,0.00,VWS V14.01,2013-01-04 04:45:00,
2013-01-03 23:46:00,9.3,4.1,30.00,North,9,3.0,3.0,79,0.00,,---,0.00,VWS V14.01,2013-01-04 04:46:00,
2013-01-03 23:47:00,9.3,4.1,30.00,NNW,345,4.0,4.0,79,0.00,,---,0.00,VWS V14.01,2013-01-04 04:47:00,
2013-01-03 23:48:00,9.3,4.1,30.00,NNW,347,4.0,4.0,79,0.00,,---,0.00,VWS V14.01,2013-01-04 04:48:00,
2013-01-03 23:51:00,9.3,4.4,30.00,North,353,4.0,4.0,80,0.00,,---,0.00,VWS V14.01,2013-01-04 04:51:00,
2013-01-03 23:52:00,9.3,4.4,30.00,North,354,3.0,4.0,80,0.00,,---,0.00,VWS V14.01,2013-01-04 04:52:00,
2013-01-03 23:53:00,9.4,4.5,30.00,North,352,4.0,4.0,80,0.00,,---,0.00,VWS V14.01,2013-01-04 04:53:00,
2013-01-03 23:56:00,9.2,4.3,30.00,NNE,13,2.0,4.0,80,0.00,,---,0.00,VWS V14.01,2013-01-04 04:56:00,
2013-01-03 23:58:00,9.1,4.2,30.00,NE,51,1.0,4.0,80,0.00,,---,0.00,VWS V14.01,2013-01-04 04:58:00,